Observation data for Palo Duro Reservoir 1NW on 12/09/2018      Previous  Date  Next       Current Mesonet Observations  Soil Data  Daily Summary Page  Observations in Plain Language
KPD4 090600Z 00000KT M05/M10 A3031 RMK A01 T10531103  RH  068%=      5-min Rain = 0
KPD4 090601Z 00000KT M05/M10 A3031 RMK A01 T10521103  RH  067%=      5-min Rain = 0
KPD4 090602Z 00000KT M05/M10 A3031 RMK A01 T10491104  RH  066%=      5-min Rain = 0
KPD4 090603Z 00000KT M05/M10 A3031 RMK A01 T10471104  RH  064%=      5-min Rain = 0
KPD4 090604Z 00000KT M05/M10 A3031 RMK A01 T10461104  RH  064%=      5-min Rain = 0
KPD4 090605Z 00000KT M05/M10 A3031 RMK A01 T10451103  RH  064%=      5-min Rain = 0
KPD4 090606Z 00000KT M05/M10 A3031 RMK A01 T10481104  RH  065%=      5-min Rain = 0
KPD4 090607Z 00000KT M05/M10 A3031 RMK A01 T10491103  RH  066%=      5-min Rain = 0
KPD4 090608Z 00000KT M05/M10 A3031 RMK A01 T10491103  RH  066%=      5-min Rain = 0
KPD4 090609Z 00000KT M05/M11 A3031 RMK A01 T10521105  RH  066%=      5-min Rain = 0
KPD4 090610Z 00000KT M06/M11 A3031 RMK A01 T10581111  RH  066%=      5-min Rain = 0
KPD4 090611Z 00000KT M06/M11 A3031 RMK A01 T10631111  RH  069%=      5-min Rain = 0
KPD4 090612Z 00000KT M06/M11 A3031 RMK A01 T10641108  RH  071%=      5-min Rain = 0
KPD4 090613Z 00000KT M06/M11 A3031 RMK A01 T10641105  RH  073%=      5-min Rain = 0
KPD4 090614Z 00000KT M06/M10 A3031 RMK A01 T10621102  RH  073%=      5-min Rain = 0
KPD4 090615Z 00000KT M06/M10 A3031 RMK A01 T10591099  RH  073%=      5-min Rain = 0
KPD4 090616Z 16000KT M06/M10 A3031 RMK A01 T10551098  RH  072%=      5-min Rain = 0
KPD4 090617Z 15001KT M05/M10 A3031 RMK A01 T10521099  RH  070%=      5-min Rain = 0
KPD4 090618Z 15001KT M05/M10 A3031 RMK A01 T10521101  RH  068%=      5-min Rain = 0
KPD4 090619Z 15000KT M05/M10 A3031 RMK A01 T10531104  RH  068%=      5-min Rain = 0
KPD4 090620Z 15000KT M06/M11 A3031 RMK A01 T10561105  RH  068%=      5-min Rain = 0
KPD4 090621Z 15001KT M06/M10 A3031 RMK A01 T10581104  RH  070%=      5-min Rain = 0
KPD4 090622Z 15001KT M06/M10 A3031 RMK A01 T10591103  RH  071%=      5-min Rain = 0
KPD4 090623Z 15001KT M06/M10 A3031 RMK A01 T10601102  RH  072%=      5-min Rain = 0
KPD4 090624Z 15001KT M06/M10 A3031 RMK A01 T10611101  RH  073%=      5-min Rain = 0
KPD4 090625Z 15001KT M06/M10 A3031 RMK A01 T10621100  RH  074%=      5-min Rain = 0
KPD4 090626Z 15001KT M06/M10 A3031 RMK A01 T10611100  RH  074%=      5-min Rain = 0
KPD4 090627Z 15001KT M06/M10 A3031 RMK A01 T10611100  RH  074%=      5-min Rain = 0
KPD4 090628Z 15001KT M06/M10 A3031 RMK A01 T10611099  RH  075%=      5-min Rain = 0
KPD4 090629Z 15001KT M06/M10 A3031 RMK A01 T10601097  RH  075%=      5-min Rain = 0
KPD4 090630Z 15001KT M06/M10 A3031 RMK A01 T10601097  RH  075%=      5-min Rain = 0
KPD4 090631Z 15001KT M06/M10 A3031 RMK A01 T10611097  RH  076%=      5-min Rain = 0
KPD4 090632Z 15001KT M06/M10 A3031 RMK A01 T10621098  RH  076%=      5-min Rain = 0
KPD4 090633Z 15000KT M06/M10 A3031 RMK A01 T10631098  RH  076%=      5-min Rain = 0
KPD4 090634Z 15000KT M06/M10 A3031 RMK A01 T10631097  RH  077%=      5-min Rain = 0
KPD4 090635Z 15001KT M06/M10 A3031 RMK A01 T10641096  RH  078%=      5-min Rain = 0
KPD4 090636Z 18001KT M06/M10 A3031 RMK A01 T10641096  RH  078%=      5-min Rain = 0
KPD4 090637Z 19002KT M07/M10 A3031 RMK A01 T10651098  RH  077%=      5-min Rain = 0
KPD4 090638Z 20002KT M07/M10 A3031 RMK A01 T10661099  RH  077%=      5-min Rain = 0
KPD4 090639Z 21002KT M07/M10 A3031 RMK A01 T10671100  RH  078%=      5-min Rain = 0
KPD4 090640Z 21002KT M07/M10 A3031 RMK A01 T10691101  RH  078%=      5-min Rain = 0
KPD4 090641Z 21002KT M07/M10 A303 RMK A01 T10701101  RH  079%=      5-min Rain = 0
KPD4 090642Z 21002KT M07/M10 A303 RMK A01 T10721101  RH  079%=      5-min Rain = 0
KPD4 090643Z 22002KT M07/M10 A303 RMK A01 T10731101  RH  080%=      5-min Rain = 0
KPD4 090644Z 22003KT M07/M10 A303 RMK A01 T10741101  RH  081%=      5-min Rain = 0
KPD4 090645Z 22003KT M07/M10 A3031 RMK A01 T10741101  RH  081%=      5-min Rain = 0
KPD4 090646Z 22003KT M08/M10 A3031 RMK A01 T10751101  RH  082%=      5-min Rain = 0
KPD4 090647Z 23003KT M07/M10 A3031 RMK A01 T10741101  RH  081%=      5-min Rain = 0
KPD4 090648Z 23003KT M07/M10 A3031 RMK A01 T10731100  RH  081%=      5-min Rain = 0
KPD4 090649Z 23003KT M07/M10 A3031 RMK A01 T10711100  RH  080%=      5-min Rain = 0
KPD4 090650Z 23003KT M07/M10 A3031 RMK A01 T10701100  RH  079%=      5-min Rain = 0
KPD4 090651Z 23003KT M07/M10 A3031 RMK A01 T10691101  RH  078%=      5-min Rain = 0
KPD4 090652Z 23003KT M07/M10 A3031 RMK A01 T10681101  RH  077%=      5-min Rain = 0
KPD4 090653Z 23003KT M07/M10 A3031 RMK A01 T10671100  RH  078%=      5-min Rain = 0
KPD4 090654Z 24003KT M07/M10 A3031 RMK A01 T10661099  RH  078%=      5-min Rain = 0
KPD4 090655Z 25003KT M07/M10 A3031 RMK A01 T10661098  RH  078%=      5-min Rain = 0
KPD4 090656Z 26004KT M07/M10 A3031 RMK A01 T10661101  RH  076%=      5-min Rain = 0
KPD4 090657Z 26004KT M07/M11 A3031 RMK A01 T10701107  RH  075%=      5-min Rain = 0
KPD4 090658Z 26004KT M07/M11 A3031 RMK A01 T10741111  RH  075%=      5-min Rain = 0
KPD4 090659Z 26004KT M08/M11 A3031 RMK A01 T10771112  RH  076%=      5-min Rain = 0
KPD4 090700Z 27005KT M08/M11 A3031 RMK A01 T10791111  RH  078%=      5-min Rain = 0
KPD4 090701Z 26006KT M08/M11 A3031 RMK A01 T10791109  RH  079%=      5-min Rain = 0
KPD4 090702Z 26006KT M08/M11 A3031 RMK A01 T10811110  RH  079%=      5-min Rain = 0
KPD4 090703Z 26006KT M08/M11 A3031 RMK A01 T10821111  RH  079%=      5-min Rain = 0
KPD4 090704Z 27005KT M08/M11 A3031 RMK A01 T10841112  RH  080%=      5-min Rain = 0
KPD4 090705Z 27005KT M09/M11 A3031 RMK A01 T10851111  RH  081%=      5-min Rain = 0
KPD4 090706Z 27005KT M08/M11 A3031 RMK A01 T10841109  RH  082%=      5-min Rain = 0
KPD4 090707Z 27005KT M09/M11 A3031 RMK A01 T10851109  RH  083%=      5-min Rain = 0
KPD4 090708Z 27005KT M09/M11 A3031 RMK A01 T10851108  RH  083%=      5-min Rain = 0
KPD4 090709Z 27005KT M08/M11 A3031 RMK A01 T10841108  RH  083%=      5-min Rain = 0
KPD4 090710Z 27005KT M08/M11 A3031 RMK A01 T10841108  RH  083%=      5-min Rain = 0
KPD4 090711Z 27005KT M08/M11 A3031 RMK A01 T10841108  RH  083%=      5-min Rain = 0
KPD4 090712Z 27004KT M08/M11 A3031 RMK A01 T10841107  RH  083%=      5-min Rain = 0
KPD4 090713Z 27004KT M08/M11 A3031 RMK A01 T10841107  RH  083%=      5-min Rain = 0
KPD4 090714Z 27004KT M08/M11 A3031 RMK A01 T10831107  RH  083%=      5-min Rain = 0
KPD4 090715Z 27004KT M08/M11 A3031 RMK A01 T10831107  RH  083%=      5-min Rain = 0
KPD4 090716Z 27003KT M08/M11 A3031 RMK A01 T10831107  RH  083%=      5-min Rain = 0
KPD4 090717Z 27003KT M08/M11 A3031 RMK A01 T10831108  RH  083%=      5-min Rain = 0
KPD4 090718Z 27003KT M08/M11 A303 RMK A01 T10831107  RH  083%=      5-min Rain = 0
KPD4 090719Z 27003KT M08/M11 A303 RMK A01 T10831107  RH  083%=      5-min Rain = 0
KPD4 090720Z 27003KT M08/M11 A3031 RMK A01 T10831107  RH  083%=      5-min Rain = 0
KPD4 090721Z 27004KT M08/M11 A3031 RMK A01 T10831107  RH  083%=      5-min Rain = 0
KPD4 090722Z 28004KT M08/M11 A3031 RMK A01 T10831107  RH  083%=      5-min Rain = 0
KPD4 090723Z 28005KT M08/M11 A3031 RMK A01 T10831108  RH  082%=      5-min Rain = 0
KPD4 090724Z 28005KT M08/M11 A3031 RMK A01 T10841110  RH  082%=      5-min Rain = 0
KPD4 090725Z 28005KT M09/M11 A3031 RMK A01 T10851110  RH  082%=      5-min Rain = 0
KPD4 090726Z 28005KT M09/M11 A3031 RMK A01 T10861110  RH  083%=      5-min Rain = 0
KPD4 090727Z 28006KT M09/M11 A3031 RMK A01 T10861110  RH  083%=      5-min Rain = 0
KPD4 090728Z 28006KT M09/M11 A3031 RMK A01 T10861109  RH  083%=      5-min Rain = 0
KPD4 090729Z 28007KT M09/M11 A3031 RMK A01 T10861109  RH  083%=      5-min Rain = 0
KPD4 090730Z 28007KT M09/M11 A3031 RMK A01 T10861109  RH  083%=      5-min Rain = 0
KPD4 090731Z 28007KT M09/M11 A3031 RMK A01 T10851108  RH  083%=      5-min Rain = 0
KPD4 090732Z 28007KT M09/M11 A3031 RMK A01 T10851108  RH  083%=      5-min Rain = 0
KPD4 090733Z 28007KT M09/M11 A3031 RMK A01 T10851109  RH  083%=      5-min Rain = 0
KPD4 090734Z 28007KT M09/M11 A3031 RMK A01 T10851108  RH  083%=      5-min Rain = 0
KPD4 090735Z 28007KT M09/M11 A3031 RMK A01 T10851109  RH  083%=      5-min Rain = 0
KPD4 090736Z 28008KT M09/M11 A3031 RMK A01 T10851109  RH  083%=      5-min Rain = 0
KPD4 090737Z 28008KT M08/M11 A3031 RMK A01 T10841108  RH  083%=      5-min Rain = 0
KPD4 090738Z 28008KT M09/M11 A3031 RMK A01 T10851108  RH  083%=      5-min Rain = 0
KPD4 090739Z 28008KT M08/M11 A3031 RMK A01 T10841108  RH  083%=      5-min Rain = 0
KPD4 090740Z 28008KT M08/M11 A3031 RMK A01 T10841108  RH  083%=      5-min Rain = 0
KPD4 090741Z 28008KT M08/M11 A3031 RMK A01 T10841109  RH  083%=      5-min Rain = 0
KPD4 090742Z 28008KT M09/M11 A3032 RMK A01 T10851109  RH  083%=      5-min Rain = 0
KPD4 090743Z 28009KT M09/M11 A3032 RMK A01 T10851109  RH  083%=      5-min Rain = 0
KPD4 090744Z 28009KT M09/M11 A3032 RMK A01 T10851109  RH  083%=      5-min Rain = 0
KPD4 090745Z 28009KT M09/M11 A3032 RMK A01 T10861110  RH  083%=      5-min Rain = 0
KPD4 090746Z 28009KT M09/M11 A3032 RMK A01 T10861110  RH  083%=      5-min Rain = 0
KPD4 090747Z 28009KT M09/M11 A3032 RMK A01 T10871111  RH  083%=      5-min Rain = 0
KPD4 090748Z 28009KT M09/M11 A3032 RMK A01 T10871112  RH  083%=      5-min Rain = 0
KPD4 090749Z 28009KT M09/M11 A3031 RMK A01 T10881111  RH  083%=      5-min Rain = 0
KPD4 090750Z 28009KT M09/M11 A3031 RMK A01 T10881111  RH  083%=      5-min Rain = 0
KPD4 090751Z 28009KT M09/M11 A3031 RMK A01 T10881112  RH  083%=      5-min Rain = 0
KPD4 090752Z 28009KT M09/M11 A3031 RMK A01 T10881112  RH  083%=      5-min Rain = 0
KPD4 090753Z 28009KT M09/M11 A3031 RMK A01 T10891112  RH  083%=      5-min Rain = 0
KPD4 090754Z 28009KT M09/M11 A3031 RMK A01 T10891113  RH  083%=      5-min Rain = 0
KPD4 090755Z 29010KT M09/M11 A3031 RMK A01 T10891113  RH  083%=      5-min Rain = 0
KPD4 090756Z 28010KT M09/M11 A3031 RMK A01 T10901113  RH  083%=      5-min Rain = 0
KPD4 090757Z 28009KT M09/M11 A3031 RMK A01 T10901113  RH  083%=      5-min Rain = 0
KPD4 090758Z 28009KT M09/M11 A3031 RMK A01 T10901113  RH  083%=      5-min Rain = 0
KPD4 090759Z 29009KT M09/M11 A3031 RMK A01 T10911114  RH  083%=      5-min Rain = 0
KPD4 090800Z 29009KT M09/M11 A3031 RMK A01 T10911114  RH  083%=      5-min Rain = 0
KPD4 090801Z 29009KT M09/M11 A3031 RMK A01 T10911114  RH  083%=      5-min Rain = 0
KPD4 090802Z 29009KT M09/M11 A3031 RMK A01 T10911114  RH  083%=      5-min Rain = 0
KPD4 090803Z 29010KT M09/M11 A3031 RMK A01 T10901114  RH  083%=      5-min Rain = 0
KPD4 090804Z 29010KT M09/M11 A3031 RMK A01 T10901113  RH  083%=      5-min Rain = 0
KPD4 090805Z 29010KT M09/M11 A3031 RMK A01 T10901113  RH  083%=      5-min Rain = 0
KPD4 090806Z 29010KT M09/M11 A3031 RMK A01 T10901113  RH  083%=      5-min Rain = 0
KPD4 090807Z 29010KT M09/M11 A3031 RMK A01 T10891113  RH  083%=      5-min Rain = 0
KPD4 090808Z 29010KT M09/M11 A3031 RMK A01 T10891112  RH  083%=      5-min Rain = 0
KPD4 090809Z 29011KT M09/M11 A3031 RMK A01 T10891113  RH  083%=      5-min Rain = 0
KPD4 090810Z 29011KT M09/M11 A3031 RMK A01 T10881112  RH  083%=      5-min Rain = 0
KPD4 090811Z 29011KT M09/M11 A3031 RMK A01 T10891113  RH  083%=      5-min Rain = 0
KPD4 090812Z 29011KT M09/M11 A3031 RMK A01 T10891113  RH  083%=      5-min Rain = 0
KPD4 090813Z 29011KT M09/M11 A3031 RMK A01 T10881113  RH  082%=      5-min Rain = 0
KPD4 090814Z 29012KT M09/M11 A3031 RMK A01 T10891114  RH  082%=      5-min Rain = 0
KPD4 090815Z 29012KT M09/M11 A3031 RMK A01 T10891113  RH  083%=      5-min Rain = 0
KPD4 090816Z 29011KT M09/M11 A3031 RMK A01 T10891113  RH  083%=      5-min Rain = 0
KPD4 090817Z 29011KT M09/M11 A3031 RMK A01 T10901114  RH  083%=      5-min Rain = 0
KPD4 090818Z 29011KT M09/M11 A3031 RMK A01 T10891114  RH  083%=      5-min Rain = 0
KPD4 090819Z 29011KT M09/M11 A3031 RMK A01 T10901114  RH  083%=      5-min Rain = 0
KPD4 090820Z 29011KT M09/M11 A3031 RMK A01 T10901114  RH  083%=      5-min Rain = 0
KPD4 090821Z 29011KT M09/M11 A3031 RMK A01 T10901114  RH  083%=      5-min Rain = 0
KPD4 090822Z 30012KT M09/M11 A3031 RMK A01 T10901114  RH  083%=      5-min Rain = 0
KPD4 090823Z 30012KT M09/M11 A3031 RMK A01 T10901114  RH  083%=      5-min Rain = 0
KPD4 090824Z 30011KT M09/M11 A3031 RMK A01 T10891112  RH  083%=      5-min Rain = 0
KPD4 090825Z 30011KT M09/M11 A3031 RMK A01 T10891112  RH  083%=      5-min Rain = 0
KPD4 090826Z 30011KT M09/M11 A3031 RMK A01 T10881111  RH  083%=      5-min Rain = 0
KPD4 090827Z 30011KT M09/M11 A3031 RMK A01 T10881111  RH  083%=      5-min Rain = 0
KPD4 090828Z 30011KT M09/M11 A3031 RMK A01 T10881112  RH  083%=      5-min Rain = 0
KPD4 090829Z 30011KT M09/M11 A3031 RMK A01 T10881112  RH  083%=      5-min Rain = 0
KPD4 090830Z 30011KT M09/M11 A3031 RMK A01 T10881112  RH  083%=      5-min Rain = 0
KPD4 090831Z 30011KT M09/M11 A3031 RMK A01 T10881112  RH  083%=      5-min Rain = 0
KPD4 090832Z 29011KT M09/M11 A3032 RMK A01 T10891112  RH  083%=      5-min Rain = 0
KPD4 090833Z 29011KT M09/M11 A3032 RMK A01 T10891112  RH  083%=      5-min Rain = 0
KPD4 090834Z 29011KT M09/M11 A3031 RMK A01 T10891112  RH  083%=      5-min Rain = 0
KPD4 090835Z 29011KT M09/M11 A3031 RMK A01 T10891112  RH  084%=      5-min Rain = 0
KPD4 090836Z 29011KT M09/M11 A3031 RMK A01 T10881110  RH  084%=      5-min Rain = 0
KPD4 090837Z 29011KT M09/M11 A3031 RMK A01 T10881110  RH  084%=      5-min Rain = 0
KPD4 090838Z 29011KT M09/M11 A3031 RMK A01 T10871110  RH  084%=      5-min Rain = 0
KPD4 090839Z 29011KT M09/M11 A3031 RMK A01 T10871109  RH  084%=      5-min Rain = 0
KPD4 090840Z 29011KT M09/M11 A3031 RMK A01 T10871109  RH  084%=      5-min Rain = 0
KPD4 090841Z 29011KT M09/M11 A3031 RMK A01 T10871109  RH  084%=      5-min Rain = 0
KPD4 090842Z 29011KT M09/M11 A3031 RMK A01 T10871109  RH  084%=      5-min Rain = 0
KPD4 090843Z 29011KT M09/M11 A3031 RMK A01 T10871109  RH  084%=      5-min Rain = 0
KPD4 090844Z 29011KT M09/M11 A3031 RMK A01 T10861109  RH  084%=      5-min Rain = 0
KPD4 090845Z 29011KT M09/M11 A3031 RMK A01 T10861109  RH  084%=      5-min Rain = 0
KPD4 090846Z 29011KT M09/M11 A3031 RMK A01 T10861109  RH  084%=      5-min Rain = 0
KPD4 090847Z 29011KT M09/M11 A3031 RMK A01 T10871110  RH  084%=      5-min Rain = 0
KPD4 090848Z 29011KT M09/M11 A3031 RMK A01 T10871110  RH  084%=      5-min Rain = 0
KPD4 090849Z 29011KT M09/M11 A3031 RMK A01 T10871110  RH  084%=      5-min Rain = 0
KPD4 090850Z 29011KT M09/M11 A3031 RMK A01 T10871109  RH  084%=      5-min Rain = 0
KPD4 090851Z 29011KT M09/M11 A3031 RMK A01 T10871109  RH  084%=      5-min Rain = 0
KPD4 090852Z 29011KT M09/M11 A3031 RMK A01 T10871110  RH  084%=      5-min Rain = 0
KPD4 090853Z 30011KT M09/M11 A3031 RMK A01 T10871110  RH  084%=      5-min Rain = 0
KPD4 090854Z 30011KT M09/M11 A3031 RMK A01 T10881110  RH  084%=      5-min Rain = 0
KPD4 090855Z 30011KT M09/M11 A3031 RMK A01 T10881110  RH  084%=      5-min Rain = 0
KPD4 090856Z 30011KT M09/M11 A3031 RMK A01 T10881110  RH  084%=      5-min Rain = 0
KPD4 090857Z 30011KT M09/M11 A3031 RMK A01 T10881110  RH  084%=      5-min Rain = 0
KPD4 090858Z 30011KT M09/M11 A3031 RMK A01 T10881110  RH  084%=      5-min Rain = 0
KPD4 090859Z 30011KT M09/M11 A3031 RMK A01 T10871110  RH  084%=      5-min Rain = 0
KPD4 090900Z 30011KT M09/M11 A3031 RMK A01 T10871110  RH  084%=      5-min Rain = 0
KPD4 090901Z 30011KT M09/M11 A3031 RMK A01 T10871110  RH  084%=      5-min Rain = 0
KPD4 090902Z 30011KT M09/M11 A3031 RMK A01 T10871109  RH  084%=      5-min Rain = 0
KPD4 090903Z 30011KT M09/M11 A3031 RMK A01 T10861109  RH  084%=      5-min Rain = 0
KPD4 090904Z 30011KT M09/M11 A3031 RMK A01 T10861109  RH  083%=      5-min Rain = 0
KPD4 090905Z 30010KT M09/M11 A3031 RMK A01 T10861110  RH  083%=      5-min Rain = 0
KPD4 090906Z 30010KT M09/M11 A3031 RMK A01 T10871110  RH  083%=      5-min Rain = 0
KPD4 090907Z 30010KT M09/M11 A3031 RMK A01 T10871110  RH  083%=      5-min Rain = 0
KPD4 090908Z 30010KT M09/M11 A3031 RMK A01 T10871110  RH  083%=      5-min Rain = 0
KPD4 090909Z 30010KT M09/M11 A3031 RMK A01 T10871110  RH  083%=      5-min Rain = 0
KPD4 090910Z 30010KT M09/M11 A3031 RMK A01 T10871110  RH  083%=      5-min Rain = 0
KPD4 090911Z 30009KT M09/M11 A3031 RMK A01 T10871110  RH  083%=      5-min Rain = 0
KPD4 090912Z 30009KT M09/M11 A3031 RMK A01 T10871111  RH  083%=      5-min Rain = 0
KPD4 090913Z 30009KT M09/M11 A3031 RMK A01 T10871111  RH  083%=      5-min Rain = 0
KPD4 090914Z 30010KT M09/M11 A3031 RMK A01 T10871111  RH  083%=      5-min Rain = 0
KPD4 090915Z 30010KT M09/M11 A3031 RMK A01 T10871112  RH  083%=      5-min Rain = 0
KPD4 090916Z 30010KT M09/M11 A3031 RMK A01 T10881112  RH  083%=      5-min Rain = 0
KPD4 090917Z 30010KT M09/M11 A3031 RMK A01 T10881112  RH  083%=      5-min Rain = 0
KPD4 090918Z 30010KT M09/M11 A3031 RMK A01 T10881112  RH  083%=      5-min Rain = 0
KPD4 090919Z 30010KT M09/M11 A3031 RMK A01 T10881112  RH  083%=      5-min Rain = 0
KPD4 090920Z 30010KT M09/M11 A3031 RMK A01 T10881112  RH  083%=      5-min Rain = 0
KPD4 090921Z 30010KT M09/M11 A3031 RMK A01 T10881112  RH  083%=      5-min Rain = 0
KPD4 090922Z 30010KT M09/M11 A3031 RMK A01 T10881111  RH  083%=      5-min Rain = 0
KPD4 090923Z 30010KT M09/M11 A3031 RMK A01 T10881111  RH  083%=      5-min Rain = 0
KPD4 090924Z 31009KT M09/M11 A3031 RMK A01 T10881111  RH  083%=      5-min Rain = 0
KPD4 090925Z 31009KT M09/M11 A3031 RMK A01 T10871111  RH  083%=      5-min Rain = 0
KPD4 090926Z 31009KT M09/M11 A3031 RMK A01 T10871111  RH  083%=      5-min Rain = 0
KPD4 090927Z 31009KT M09/M11 A3031 RMK A01 T10871111  RH  083%=      5-min Rain = 0
KPD4 090928Z 31009KT M09/M11 A3031 RMK A01 T10871111  RH  083%=      5-min Rain = 0
KPD4 090929Z 30010KT M09/M11 A3031 RMK A01 T10871111  RH  083%=      5-min Rain = 0
KPD4 090930Z 30010KT M09/M11 A3031 RMK A01 T10871111  RH  083%=      5-min Rain = 0
KPD4 090931Z 30010KT M09/M11 A3031 RMK A01 T10881112  RH  083%=      5-min Rain = 0
KPD4 090932Z 30010KT M09/M11 A3031 RMK A01 T10891113  RH  083%=      5-min Rain = 0
KPD4 090933Z 30010KT M09/M11 A3031 RMK A01 T10891113  RH  083%=      5-min Rain = 0
KPD4 090934Z 30010KT M09/M11 A3031 RMK A01 T10891113  RH  083%=      5-min Rain = 0
KPD4 090935Z 30010KT M09/M11 A3031 RMK A01 T10901113  RH  083%=      5-min Rain = 0
KPD4 090936Z 30010KT M09/M11 A3031 RMK A01 T10901113  RH  084%=      5-min Rain = 0
KPD4 090937Z 31010KT M09/M11 A3031 RMK A01 T10901113  RH  084%=      5-min Rain = 0
KPD4 090938Z 31010KT M09/M11 A3031 RMK A01 T10891112  RH  084%=      5-min Rain = 0
KPD4 090939Z 31010KT M09/M11 A3031 RMK A01 T10891111  RH  084%=      5-min Rain = 0
KPD4 090940Z 30010KT M09/M11 A3031 RMK A01 T10891112  RH  083%=      5-min Rain = 0
KPD4 090941Z 30010KT M09/M11 A3031 RMK A01 T10891113  RH  083%=      5-min Rain = 0
KPD4 090942Z 30010KT M09/M11 A3031 RMK A01 T10901114  RH  083%=      5-min Rain = 0
KPD4 090943Z 30010KT M09/M11 A3031 RMK A01 T10911114  RH  083%=      5-min Rain = 0
KPD4 090944Z 30010KT M09/M12 A3031 RMK A01 T10911115  RH  083%=      5-min Rain = 0
KPD4 090945Z 30010KT M09/M12 A3031 RMK A01 T10921115  RH  083%=      5-min Rain = 0
KPD4 090946Z 30010KT M09/M12 A3031 RMK A01 T10931117  RH  083%=      5-min Rain = 0
KPD4 090947Z 30010KT M09/M12 A3031 RMK A01 T10941117  RH  083%=      5-min Rain = 0
KPD4 090948Z 30010KT M09/M12 A3031 RMK A01 T10941117  RH  084%=      5-min Rain = 0
KPD4 090949Z 30009KT M10/M12 A3031 RMK A01 T10951117  RH  084%=      5-min Rain = 0
KPD4 090950Z 30009KT M10/M12 A3031 RMK A01 T10951117  RH  084%=      5-min Rain = 0
KPD4 090951Z 30010KT M10/M12 A3031 RMK A01 T10961118  RH  084%=      5-min Rain = 0
KPD4 090952Z 30010KT M10/M12 A3031 RMK A01 T10961118  RH  084%=      5-min Rain = 0
KPD4 090953Z 30010KT M10/M12 A3031 RMK A01 T10971118  RH  084%=      5-min Rain = 0
KPD4 090954Z 30010KT M10/M12 A3031 RMK A01 T10971119  RH  084%=      5-min Rain = 0
KPD4 090955Z 30010KT M10/M12 A3031 RMK A01 T10981119  RH  084%=      5-min Rain = 0
KPD4 090956Z 30009KT M10/M12 A3031 RMK A01 T10981119  RH  084%=      5-min Rain = 0
KPD4 090957Z 30009KT M10/M12 A3031 RMK A01 T10981119  RH  085%=      5-min Rain = 0
KPD4 090958Z 30009KT M10/M12 A3031 RMK A01 T10981119  RH  085%=      5-min Rain = 0
KPD4 090959Z 30009KT M10/M12 A3031 RMK A01 T10981119  RH  085%=      5-min Rain = 0
KPD4 091000Z 30009KT M10/M12 A3031 RMK A01 T10981119  RH  085%=      5-min Rain = 0
KPD4 091001Z 29009KT M10/M12 A3031 RMK A01 T10981119  RH  085%=      5-min Rain = 0
KPD4 091002Z 29009KT M10/M12 A3031 RMK A01 T10981119  RH  085%=      5-min Rain = 0
KPD4 091003Z 29009KT M10/M12 A3031 RMK A01 T10981119  RH  085%=      5-min Rain = 0
KPD4 091004Z 29009KT M10/M12 A3031 RMK A01 T10981119  RH  085%=      5-min Rain = 0
KPD4 091005Z 29009KT M10/M12 A3031 RMK A01 T10971118  RH  085%=      5-min Rain = 0
KPD4 091006Z 29009KT M10/M12 A3031 RMK A01 T10971117  RH  085%=      5-min Rain = 0
KPD4 091007Z 29010KT M10/M12 A3031 RMK A01 T10961115  RH  086%=      5-min Rain = 0
KPD4 091008Z 28010KT M10/M12 A3031 RMK A01 T10951115  RH  085%=      5-min Rain = 0
KPD4 091009Z 28010KT M10/M12 A3031 RMK A01 T10951115  RH  085%=      5-min Rain = 0
KPD4 091010Z 28009KT M09/M11 A3031 RMK A01 T10941114  RH  085%=      5-min Rain = 0
KPD4 091011Z 28009KT M09/M11 A3031 RMK A01 T10941114  RH  085%=      5-min Rain = 0
KPD4 091012Z 28008KT M09/M11 A3031 RMK A01 T10941114  RH  085%=      5-min Rain = 0
KPD4 091013Z 28008KT M09/M11 A3031 RMK A01 T10931113  RH  085%=      5-min Rain = 0
KPD4 091014Z 28008KT M09/M11 A3031 RMK A01 T10931113  RH  086%=      5-min Rain = 0
KPD4 091015Z 28009KT M09/M11 A3031 RMK A01 T10921112  RH  086%=      5-min Rain = 0
KPD4 091016Z 28009KT M09/M11 A3031 RMK A01 T10911111  RH  086%=      5-min Rain = 0
KPD4 091017Z 28009KT M09/M11 A3031 RMK A01 T10911111  RH  086%=      5-min Rain = 0
KPD4 091018Z 28009KT M09/M11 A3031 RMK A01 T10901110  RH  086%=      5-min Rain = 0
KPD4 091019Z 28008KT M09/M11 A303 RMK A01 T10891109  RH  085%=      5-min Rain = 0
KPD4 091020Z 28008KT M09/M11 A303 RMK A01 T10891110  RH  085%=      5-min Rain = 0
KPD4 091021Z 28008KT M09/M11 A303 RMK A01 T10891109  RH  085%=      5-min Rain = 0
KPD4 091022Z 28008KT M09/M11 A303 RMK A01 T10881109  RH  085%=      5-min Rain = 0
KPD4 091023Z 28007KT M09/M11 A303 RMK A01 T10881109  RH  085%=      5-min Rain = 0
KPD4 091024Z 28007KT M09/M11 A303 RMK A01 T10891110  RH  084%=      5-min Rain = 0
KPD4 091025Z 28007KT M09/M11 A303 RMK A01 T10891111  RH  084%=      5-min Rain = 0
KPD4 091026Z 28006KT M09/M11 A303 RMK A01 T10901112  RH  084%=      5-min Rain = 0
KPD4 091027Z 28007KT M09/M11 A3031 RMK A01 T10911112  RH  084%=      5-min Rain = 0
KPD4 091028Z 28007KT M09/M11 A3031 RMK A01 T10911113  RH  084%=      5-min Rain = 0
KPD4 091029Z 28007KT M09/M11 A3031 RMK A01 T10921113  RH  084%=      5-min Rain = 0
KPD4 091030Z 28007KT M09/M11 A3031 RMK A01 T10921114  RH  084%=      5-min Rain = 0
KPD4 091031Z 28008KT M09/M11 A3031 RMK A01 T10931114  RH  084%=      5-min Rain = 0
KPD4 091032Z 28008KT M09/M12 A3031 RMK A01 T10931115  RH  084%=      5-min Rain = 0
KPD4 091033Z 28008KT M09/M12 A3031 RMK A01 T10931115  RH  084%=      5-min Rain = 0
KPD4 091034Z 28009KT M09/M11 A3031 RMK A01 T10931114  RH  085%=      5-min Rain = 0
KPD4 091035Z 28009KT M09/M11 A3031 RMK A01 T10931114  RH  085%=      5-min Rain = 0
KPD4 091036Z 28009KT M09/M11 A3031 RMK A01 T10931114  RH  085%=      5-min Rain = 0
KPD4 091037Z 28009KT M09/M11 A3031 RMK A01 T10931114  RH  085%=      5-min Rain = 0
KPD4 091038Z 28010KT M09/M11 A3031 RMK A01 T10931114  RH  085%=      5-min Rain = 0
KPD4 091039Z 28010KT M09/M11 A3031 RMK A01 T10921113  RH  085%=      5-min Rain = 0
KPD4 091040Z 28010KT M09/M11 A3031 RMK A01 T10921113  RH  085%=      5-min Rain = 0
KPD4 091041Z 29010KT M09/M11 A3031 RMK A01 T10921113  RH  085%=      5-min Rain = 0
KPD4 091042Z 29010KT M09/M11 A3031 RMK A01 T10921113  RH  085%=      5-min Rain = 0
KPD4 091043Z 29010KT M09/M11 A3031 RMK A01 T10911112  RH  085%=      5-min Rain = 0
KPD4 091044Z 29010KT M09/M11 A3031 RMK A01 T10911112  RH  085%=      5-min Rain = 0
KPD4 091045Z 29010KT M09/M11 A3031 RMK A01 T10901112  RH  084%=      5-min Rain = 0
KPD4 091046Z 29010KT M09/M11 A3031 RMK A01 T10911112  RH  084%=      5-min Rain = 0
KPD4 091047Z 29010KT M09/M11 A3031 RMK A01 T10911112  RH  084%=      5-min Rain = 0
KPD4 091048Z 29010KT M09/M11 A3031 RMK A01 T10901112  RH  084%=      5-min Rain = 0
KPD4 091049Z 29010KT M09/M11 A3031 RMK A01 T10901112  RH  084%=      5-min Rain = 0
KPD4 091050Z 29011KT M09/M11 A3031 RMK A01 T10911113  RH  084%=      5-min Rain = 0
KPD4 091051Z 29011KT M09/M11 A3031 RMK A01 T10911113  RH  084%=      5-min Rain = 0
KPD4 091052Z 29011KT M09/M11 A3031 RMK A01 T10911113  RH  084%=      5-min Rain = 0
KPD4 091053Z 29010KT M09/M11 A3031 RMK A01 T10911113  RH  084%=      5-min Rain = 0
KPD4 091054Z 29010KT M09/M11 A3031 RMK A01 T10911112  RH  085%=      5-min Rain = 0
KPD4 091055Z 29010KT M09/M11 A3031 RMK A01 T10911112  RH  085%=      5-min Rain = 0
KPD4 091056Z 29009KT M09/M11 A3031 RMK A01 T10901111  RH  085%=      5-min Rain = 0
KPD4 091057Z 29009KT M09/M11 A3031 RMK A01 T10901111  RH  085%=      5-min Rain = 0
KPD4 091058Z 29009KT M09/M11 A3031 RMK A01 T10891111  RH  085%=      5-min Rain = 0
KPD4 091059Z 29009KT M09/M11 A3031 RMK A01 T10891111  RH  084%=      5-min Rain = 0
KPD4 091100Z 29009KT M09/M11 A3031 RMK A01 T10891110  RH  084%=      5-min Rain = 0
KPD4 091101Z 29009KT M09/M11 A3031 RMK A01 T10891111  RH  084%=      5-min Rain = 0
KPD4 091102Z 28008KT M09/M11 A3031 RMK A01 T10891111  RH  084%=      5-min Rain = 0
KPD4 091103Z 28007KT M09/M11 A3031 RMK A01 T10891111  RH  084%=      5-min Rain = 0
KPD4 091104Z 28006KT M09/M11 A3031 RMK A01 T10901112  RH  084%=      5-min Rain = 0
KPD4 091105Z 27004KT M09/M11 A3031 RMK A01 T10911113  RH  084%=      5-min Rain = 0
KPD4 091106Z 26003KT M09/M11 A3031 RMK A01 T10921114  RH  084%=      5-min Rain = 0
KPD4 091107Z 26003KT M09/M12 A303 RMK A01 T10931115  RH  084%=      5-min Rain = 0
KPD4 091108Z 26003KT M09/M11 A303 RMK A01 T10931114  RH  085%=      5-min Rain = 0
KPD4 091109Z 28004KT M09/M11 A303 RMK A01 T10931113  RH  085%=      5-min Rain = 0
KPD4 091110Z 28004KT M09/M11 A3031 RMK A01 T10921112  RH  085%=      5-min Rain = 0
KPD4 091111Z 28004KT M09/M11 A3031 RMK A01 T10921113  RH  085%=      5-min Rain = 0
KPD4 091112Z 28005KT M09/M11 A3031 RMK A01 T10921113  RH  085%=      5-min Rain = 0
KPD4 091113Z 28005KT M09/M11 A3031 RMK A01 T10921113  RH  085%=      5-min Rain = 0
KPD4 091114Z 28006KT M09/M11 A3031 RMK A01 T10921113  RH  085%=      5-min Rain = 0
KPD4 091115Z 28005KT M09/M11 A3031 RMK A01 T10911113  RH  085%=      5-min Rain = 0
KPD4 091116Z 28006KT M09/M11 A303 RMK A01 T10921113  RH  084%=      5-min Rain = 0
KPD4 091117Z 28006KT M09/M11 A303 RMK A01 T10911113  RH  084%=      5-min Rain = 0
KPD4 091118Z 28006KT M09/M11 A303 RMK A01 T10921114  RH  084%=      5-min Rain = 0
KPD4 091119Z 28006KT M09/M11 A303 RMK A01 T10921114  RH  084%=      5-min Rain = 0
KPD4 091120Z 28006KT M09/M11 A303 RMK A01 T10931114  RH  084%=      5-min Rain = 0
KPD4 091121Z 27005KT M09/M12 A303 RMK A01 T10931115  RH  084%=      5-min Rain = 0
KPD4 091122Z 27005KT M09/M12 A303 RMK A01 T10941115  RH  084%=      5-min Rain = 0
KPD4 091123Z 27004KT M09/M12 A303 RMK A01 T10941115  RH  084%=      5-min Rain = 0
KPD4 091124Z 27003KT M10/M12 A303 RMK A01 T10951116  RH  084%=      5-min Rain = 0
KPD4 091125Z 27004KT M10/M12 A303 RMK A01 T10961117  RH  084%=      5-min Rain = 0
KPD4 091126Z 27004KT M10/M12 A3031 RMK A01 T10961117  RH  085%=      5-min Rain = 0
KPD4 091127Z 27004KT M10/M12 A3031 RMK A01 T10961117  RH  085%=      5-min Rain = 0
KPD4 091128Z 27004KT M10/M12 A3031 RMK A01 T10961117  RH  085%=      5-min Rain = 0
KPD4 091129Z 27004KT M10/M12 A3031 RMK A01 T10971117  RH  085%=      5-min Rain = 0
KPD4 091130Z 26004KT M10/M12 A3031 RMK A01 T10971117  RH  085%=      5-min Rain = 0
KPD4 091131Z 26004KT M10/M12 A3031 RMK A01 T10971117  RH  086%=      5-min Rain = 0
KPD4 091132Z 26004KT M10/M12 A3031 RMK A01 T10971117  RH  086%=      5-min Rain = 0
KPD4 091133Z 26004KT M10/M12 A3031 RMK A01 T10961116  RH  086%=      5-min Rain = 0
KPD4 091134Z 26004KT M10/M12 A3031 RMK A01 T10961115  RH  086%=      5-min Rain = 0
KPD4 091135Z 26004KT M10/M12 A3031 RMK A01 T10961115  RH  086%=      5-min Rain = 0
KPD4 091136Z 25004KT M10/M12 A3031 RMK A01 T10961116  RH  086%=      5-min Rain = 0
KPD4 091137Z 25003KT M10/M12 A3031 RMK A01 T10961116  RH  086%=      5-min Rain = 0
KPD4 091138Z 25003KT M10/M12 A3031 RMK A01 T10961115  RH  086%=      5-min Rain = 0
KPD4 091139Z 24003KT M10/M12 A3031 RMK A01 T10961115  RH  086%=      5-min Rain = 0
KPD4 091140Z 24003KT M10/M11 A3031 RMK A01 T10951114  RH  086%=      5-min Rain = 0
KPD4 091141Z 25003KT M10/M11 A3031 RMK A01 T10951114  RH  086%=      5-min Rain = 0
KPD4 091142Z 25004KT M09/M11 A3031 RMK A01 T10941113  RH  086%=      5-min Rain = 0
KPD4 091143Z 25004KT M09/M11 A3031 RMK A01 T10931113  RH  086%=      5-min Rain = 0
KPD4 091144Z 26004KT M09/M11 A3031 RMK A01 T10931113  RH  086%=      5-min Rain = 0
KPD4 091145Z 25003KT M09/M11 A3031 RMK A01 T10921112  RH  086%=      5-min Rain = 0
KPD4 091146Z 25003KT M09/M11 A3031 RMK A01 T10921112  RH  085%=      5-min Rain = 0
KPD4 091147Z 25003KT M09/M11 A3031 RMK A01 T10921113  RH  085%=      5-min Rain = 0
KPD4 091148Z 25003KT M09/M11 A3031 RMK A01 T10921112  RH  085%=      5-min Rain = 0
KPD4 091149Z 26003KT M09/M11 A3031 RMK A01 T10921113  RH  085%=      5-min Rain = 0
KPD4 091150Z 26004KT M09/M11 A3031 RMK A01 T10921113  RH  085%=      5-min Rain = 0
KPD4 091151Z 27004KT M09/M11 A3031 RMK A01 T10921112  RH  085%=      5-min Rain = 0
KPD4 091152Z 27005KT M09/M11 A3031 RMK A01 T10911112  RH  085%=      5-min Rain = 0
KPD4 091153Z 28005KT M09/M11 A3031 RMK A01 T10911113  RH  085%=      5-min Rain = 0
KPD4 091154Z 28006KT M09/M11 A3031 RMK A01 T10911113  RH  084%=      5-min Rain = 0
KPD4 091155Z 28007KT M09/M11 A3031 RMK A01 T10911113  RH  084%=      5-min Rain = 0
KPD4 091156Z 28007KT M09/M11 A3031 RMK A01 T10921114  RH  084%=      5-min Rain = 0
KPD4 091157Z 28007KT M09/M11 A3031 RMK A01 T10921114  RH  084%=      5-min Rain = 0
KPD4 091158Z 28008KT M09/M12 A3031 RMK A01 T10931115  RH  084%=      5-min Rain = 0
KPD4 091159Z 28008KT M09/M12 A3031 RMK A01 T10931115  RH  084%=      5-min Rain = 0
KPD4 091200Z 29008KT M09/M12 A3031 RMK A01 T10931115  RH  084%=      5-min Rain = 0
KPD4 091201Z 29009KT M09/M12 A3031 RMK A01 T10931115  RH  085%=      5-min Rain = 0
KPD4 091202Z 29009KT M09/M11 A3031 RMK A01 T10931114  RH  085%=      5-min Rain = 0
KPD4 091203Z 29009KT M09/M11 A3031 RMK A01 T10931114  RH  085%=      5-min Rain = 0
KPD4 091204Z 29009KT M09/M11 A3031 RMK A01 T10931114  RH  085%=      5-min Rain = 0
KPD4 091205Z 29009KT M09/M11 A3031 RMK A01 T10921113  RH  085%=      5-min Rain = 0
KPD4 091206Z 28010KT M09/M11 A3031 RMK A01 T10911112  RH  085%=      5-min Rain = 0
KPD4 091207Z 28010KT M09/M11 A3031 RMK A01 T10911112  RH  085%=      5-min Rain = 0
KPD4 091208Z 28010KT M09/M11 A3031 RMK A01 T10901111  RH  085%=      5-min Rain = 0
KPD4 091209Z 28010KT M09/M11 A3032 RMK A01 T10891110  RH  085%=      5-min Rain = 0
KPD4 091210Z 28010KT M09/M11 A3032 RMK A01 T10891110  RH  085%=      5-min Rain = 0
KPD4 091211Z 28010KT M09/M11 A3032 RMK A01 T10881109  RH  085%=      5-min Rain = 0
KPD4 091212Z 28010KT M09/M11 A3032 RMK A01 T10881109  RH  085%=      5-min Rain = 0
KPD4 091213Z 29010KT M09/M11 A3032 RMK A01 T10871109  RH  084%=      5-min Rain = 0
KPD4 091214Z 28010KT M09/M11 A3032 RMK A01 T10871110  RH  084%=      5-min Rain = 0
KPD4 091215Z 29010KT M09/M11 A3032 RMK A01 T10871109  RH  084%=      5-min Rain = 0
KPD4 091216Z 28010KT M09/M11 A3032 RMK A01 T10871110  RH  084%=      5-min Rain = 0
KPD4 091217Z 28010KT M09/M11 A3032 RMK A01 T10881110  RH  084%=      5-min Rain = 0
KPD4 091218Z 28010KT M09/M11 A3032 RMK A01 T10881110  RH  084%=      5-min Rain = 0
KPD4 091219Z 29010KT M09/M11 A3032 RMK A01 T10881110  RH  084%=      5-min Rain = 0
KPD4 091220Z 29010KT M09/M11 A3032 RMK A01 T10881110  RH  084%=      5-min Rain = 0
KPD4 091221Z 29010KT M09/M11 A3032 RMK A01 T10881111  RH  084%=      5-min Rain = 0
KPD4 091222Z 29010KT M09/M11 A3032 RMK A01 T10891111  RH  084%=      5-min Rain = 0
KPD4 091223Z 29010KT M09/M11 A3032 RMK A01 T10891111  RH  084%=      5-min Rain = 0
KPD4 091224Z 28010KT M09/M11 A3032 RMK A01 T10891111  RH  084%=      5-min Rain = 0
KPD4 091225Z 28010KT M09/M11 A3032 RMK A01 T10891111  RH  084%=      5-min Rain = 0
KPD4 091226Z 28010KT M09/M11 A3032 RMK A01 T10891111  RH  084%=      5-min Rain = 0
KPD4 091227Z 28010KT M09/M11 A3032 RMK A01 T10891111  RH  084%=      5-min Rain = 0
KPD4 091228Z 28010KT M09/M11 A3032 RMK A01 T10891111  RH  084%=      5-min Rain = 0
KPD4 091229Z 29010KT M09/M11 A3032 RMK A01 T10891110  RH  085%=      5-min Rain = 0
KPD4 091230Z 29010KT M09/M11 A3032 RMK A01 T10891110  RH  084%=      5-min Rain = 0
KPD4 091231Z 29010KT M09/M11 A3032 RMK A01 T10891110  RH  084%=      5-min Rain = 0
KPD4 091232Z 28010KT M09/M11 A3032 RMK A01 T10891110  RH  084%=      5-min Rain = 0
KPD4 091233Z 28010KT M09/M11 A3032 RMK A01 T10891110  RH  084%=      5-min Rain = 0
KPD4 091234Z 28010KT M09/M11 A3032 RMK A01 T10891110  RH  084%=      5-min Rain = 0
KPD4 091235Z 28010KT M09/M11 A3032 RMK A01 T10891110  RH  084%=      5-min Rain = 0
KPD4 091236Z 28010KT M09/M11 A3032 RMK A01 T10891110  RH  084%=      5-min Rain = 0
KPD4 091237Z 28009KT M09/M11 A3032 RMK A01 T10891111  RH  084%=      5-min Rain = 0
KPD4 091238Z 28009KT M09/M11 A3032 RMK A01 T10891110  RH  084%=      5-min Rain = 0
KPD4 091239Z 28010KT M09/M11 A3032 RMK A01 T10891110  RH  084%=      5-min Rain = 0
KPD4 091240Z 28010KT M09/M11 A3032 RMK A01 T10891110  RH  084%=      5-min Rain = 0
KPD4 091241Z 28010KT M09/M11 A3032 RMK A01 T10881110  RH  084%=      5-min Rain = 0
KPD4 091242Z 28010KT M09/M11 A3032 RMK A01 T10891110  RH  084%=      5-min Rain = 0
KPD4 091243Z 28010KT M09/M11 A3032 RMK A01 T10891110  RH  084%=      5-min Rain = 0
KPD4 091244Z 28010KT M09/M11 A3032 RMK A01 T10891110  RH  084%=      5-min Rain = 0
KPD4 091245Z 28009KT M09/M11 A3032 RMK A01 T10881110  RH  084%=      5-min Rain = 0
KPD4 091246Z 28009KT M09/M11 A3032 RMK A01 T10881110  RH  084%=      5-min Rain = 0
KPD4 091247Z 28009KT M09/M11 A3032 RMK A01 T10881110  RH  084%=      5-min Rain = 0
KPD4 091248Z 28009KT M09/M11 A3032 RMK A01 T10881110  RH  084%=      5-min Rain = 0
KPD4 091249Z 28008KT M09/M11 A3032 RMK A01 T10881110  RH  084%=      5-min Rain = 0
KPD4 091250Z 27008KT M09/M11 A3032 RMK A01 T10881110  RH  084%=      5-min Rain = 0
KPD4 091251Z 27007KT M09/M11 A3032 RMK A01 T10881110  RH  084%=      5-min Rain = 0
KPD4 091252Z 27006KT M09/M11 A3032 RMK A01 T10891111  RH  084%=      5-min Rain = 0
KPD4 091253Z 26005KT M09/M11 A3032 RMK A01 T10891111  RH  084%=      5-min Rain = 0
KPD4 091254Z 25005KT M09/M11 A3032 RMK A01 T10901112  RH  084%=      5-min Rain = 0
KPD4 091255Z 26004KT M09/M11 A3032 RMK A01 T10911112  RH  085%=      5-min Rain = 0
KPD4 091256Z 26004KT M09/M11 A3032 RMK A01 T10901111  RH  085%=      5-min Rain = 0
KPD4 091257Z 26004KT M09/M11 A3032 RMK A01 T10901109  RH  086%=      5-min Rain = 0
KPD4 091258Z 26004KT M09/M11 A3032 RMK A01 T10881108  RH  086%=      5-min Rain = 0
KPD4 091259Z 27004KT M09/M11 A3032 RMK A01 T10871107  RH  085%=      5-min Rain = 0
KPD4 091300Z 27004KT M09/M11 A3032 RMK A01 T10871107  RH  085%=      5-min Rain = 0
KPD4 091301Z 27004KT M09/M11 A3032 RMK A01 T10861107  RH  085%=      5-min Rain = 0
KPD4 091302Z 27005KT M09/M11 A3032 RMK A01 T10861107  RH  085%=      5-min Rain = 0
KPD4 091303Z 27005KT M09/M11 A3032 RMK A01 T10861108  RH  084%=      5-min Rain = 0
KPD4 091304Z 28005KT M09/M11 A3033 RMK A01 T10861108  RH  084%=      5-min Rain = 0
KPD4 091305Z 28006KT M09/M11 A3033 RMK A01 T10861108  RH  084%=      5-min Rain = 0
KPD4 091306Z 28007KT M09/M11 A3033 RMK A01 T10861108  RH  084%=      5-min Rain = 0
KPD4 091307Z 28007KT M09/M11 A3033 RMK A01 T10861108  RH  084%=      5-min Rain = 0
KPD4 091308Z 28007KT M09/M11 A3033 RMK A01 T10861107  RH  085%=      5-min Rain = 0
KPD4 091309Z 28007KT M09/M11 A3033 RMK A01 T10861107  RH  085%=      5-min Rain = 0
KPD4 091310Z 28007KT M09/M11 A3033 RMK A01 T10861107  RH  085%=      5-min Rain = 0
KPD4 091311Z 28007KT M09/M11 A3033 RMK A01 T10861106  RH  085%=      5-min Rain = 0
KPD4 091312Z 28008KT M09/M11 A3033 RMK A01 T10851106  RH  085%=      5-min Rain = 0
KPD4 091313Z 28008KT M09/M11 A3033 RMK A01 T10851106  RH  085%=      5-min Rain = 0
KPD4 091314Z 28008KT M09/M11 A3033 RMK A01 T10851106  RH  085%=      5-min Rain = 0
KPD4 091315Z 28008KT M09/M11 A3033 RMK A01 T10851106  RH  085%=      5-min Rain = 0
KPD4 091316Z 28008KT M09/M11 A3033 RMK A01 T10851106  RH  085%=      5-min Rain = 0
KPD4 091317Z 28008KT M09/M11 A3033 RMK A01 T10851106  RH  085%=      5-min Rain = 0
KPD4 091318Z 28008KT M08/M11 A3033 RMK A01 T10841105  RH  085%=      5-min Rain = 0
KPD4 091319Z 28007KT M08/M11 A3033 RMK A01 T10841106  RH  085%=      5-min Rain = 0
KPD4 091320Z 28007KT M09/M11 A3033 RMK A01 T10851106  RH  085%=      5-min Rain = 0
KPD4 091321Z 28006KT M09/M11 A3033 RMK A01 T10851106  RH  085%=      5-min Rain = 0
KPD4 091322Z 28006KT M09/M11 A3033 RMK A01 T10851106  RH  085%=      5-min Rain = 0
KPD4 091323Z 27005KT M09/M11 A3033 RMK A01 T10851107  RH  085%=      5-min Rain = 0
KPD4 091324Z 27004KT M09/M11 A3033 RMK A01 T10851107  RH  085%=      5-min Rain = 0
KPD4 091325Z 26003KT M09/M11 A3033 RMK A01 T10861107  RH  085%=      5-min Rain = 0
KPD4 091326Z 25003KT M09/M11 A3033 RMK A01 T10881109  RH  084%=      5-min Rain = 0
KPD4 091327Z 23002KT M09/M11 A3033 RMK A01 T10891110  RH  084%=      5-min Rain = 0
KPD4 091328Z 23002KT M09/M11 A3033 RMK A01 T10891110  RH  085%=      5-min Rain = 0
KPD4 091329Z 24002KT M09/M11 A3033 RMK A01 T10901109  RH  086%=      5-min Rain = 0
KPD4 091330Z 24002KT M09/M11 A3033 RMK A01 T10891108  RH  086%=      5-min Rain = 0
KPD4 091331Z 26002KT M09/M11 A3033 RMK A01 T10891108  RH  086%=      5-min Rain = 0
KPD4 091332Z 27002KT M09/M11 A3033 RMK A01 T10891108  RH  086%=      5-min Rain = 0
KPD4 091333Z 27004KT M09/M11 A3033 RMK A01 T10881107  RH  087%=      5-min Rain = 0
KPD4 091334Z 28003KT M09/M11 A3033 RMK A01 T10871105  RH  087%=      5-min Rain = 0
KPD4 091335Z 28003KT M09/M10 A3033 RMK A01 T10851104  RH  086%=      5-min Rain = 0
KPD4 091336Z 28004KT M08/M10 A3033 RMK A01 T10841104  RH  086%=      5-min Rain = 0
KPD4 091337Z 28005KT M08/M10 A3033 RMK A01 T10841104  RH  085%=      5-min Rain = 0
KPD4 091338Z 28005KT M08/M11 A3033 RMK A01 T10841105  RH  085%=      5-min Rain = 0
KPD4 091339Z 28005KT M08/M10 A3033 RMK A01 T10831104  RH  085%=      5-min Rain = 0
KPD4 091340Z 28004KT M08/M10 A3033 RMK A01 T10831104  RH  085%=      5-min Rain = 0
KPD4 091341Z 28004KT M08/M10 A3033 RMK A01 T10821104  RH  085%=      5-min Rain = 0
KPD4 091342Z 28004KT M08/M10 A3033 RMK A01 T10821104  RH  084%=      5-min Rain = 0
KPD4 091343Z 28004KT M08/M10 A3033 RMK A01 T10821104  RH  084%=      5-min Rain = 0
KPD4 091344Z 28004KT M08/M11 A3034 RMK A01 T10821105  RH  084%=      5-min Rain = 0
KPD4 091345Z 27004KT M08/M11 A3033 RMK A01 T10831106  RH  084%=      5-min Rain = 0
KPD4 091346Z 26003KT M08/M11 A3033 RMK A01 T10841106  RH  084%=      5-min Rain = 0
KPD4 091347Z 26003KT M08/M11 A3033 RMK A01 T10841107  RH  084%=      5-min Rain = 0
KPD4 091348Z 26003KT M09/M11 A3033 RMK A01 T10851108  RH  084%=      5-min Rain = 0
KPD4 091349Z 26003KT M09/M11 A3034 RMK A01 T10861108  RH  084%=      5-min Rain = 0
KPD4 091350Z 26003KT M09/M11 A3034 RMK A01 T10861107  RH  084%=      5-min Rain = 0
KPD4 091351Z 26003KT M09/M11 A3034 RMK A01 T10861107  RH  085%=      5-min Rain = 0
KPD4 091352Z 26003KT M09/M11 A3034 RMK A01 T10861108  RH  085%=      5-min Rain = 0
KPD4 091353Z 26004KT M09/M11 A3034 RMK A01 T10861107  RH  085%=      5-min Rain = 0
KPD4 091354Z 26004KT M09/M11 A3034 RMK A01 T10861107  RH  085%=      5-min Rain = 0
KPD4 091355Z 25004KT M09/M11 A3034 RMK A01 T10861107  RH  085%=      5-min Rain = 0
KPD4 091356Z 25004KT M09/M11 A3034 RMK A01 T10861108  RH  084%=      5-min Rain = 0
KPD4 091357Z 25004KT M09/M11 A3034 RMK A01 T10871108  RH  084%=      5-min Rain = 0
KPD4 091358Z 24004KT M09/M11 A3033 RMK A01 T10871108  RH  085%=      5-min Rain = 0
KPD4 091359Z 23004KT M09/M11 A3033 RMK A01 T10861107  RH  085%=      5-min Rain = 0
KPD4 091400Z 23003KT M09/M11 A3033 RMK A01 T10861106  RH  085%=      5-min Rain = 0
KPD4 091401Z 23003KT M09/M11 A3034 RMK A01 T10851106  RH  085%=      5-min Rain = 0
KPD4 091402Z 23003KT M09/M11 A3034 RMK A01 T10851106  RH  084%=      5-min Rain = 0
KPD4 091403Z 24004KT M09/M11 A3034 RMK A01 T10851107  RH  084%=      5-min Rain = 0
KPD4 091404Z 24004KT M09/M11 A3034 RMK A01 T10851107  RH  084%=      5-min Rain = 0
KPD4 091405Z 24004KT M09/M11 A3034 RMK A01 T10851107  RH  084%=      5-min Rain = 0
KPD4 091406Z 24004KT M09/M11 A3033 RMK A01 T10861108  RH  084%=      5-min Rain = 0
KPD4 091407Z 23004KT M09/M11 A3033 RMK A01 T10861107  RH  084%=      5-min Rain = 0
KPD4 091408Z 23004KT M09/M11 A3033 RMK A01 T10861108  RH  085%=      5-min Rain = 0
KPD4 091409Z 24003KT M09/M11 A3034 RMK A01 T10861107  RH  085%=      5-min Rain = 0
KPD4 091410Z 24003KT M09/M11 A3034 RMK A01 T10861107  RH  085%=      5-min Rain = 0
KPD4 091411Z 24003KT M09/M11 A3034 RMK A01 T10861106  RH  085%=      5-min Rain = 0
KPD4 091412Z 25003KT M09/M11 A3034 RMK A01 T10851106  RH  085%=      5-min Rain = 0
KPD4 091413Z 26003KT M08/M10 A3034 RMK A01 T10841104  RH  086%=      5-min Rain = 0
KPD4 091414Z 26003KT M08/M10 A3034 RMK A01 T10841103  RH  086%=      5-min Rain = 0
KPD4 091415Z 26003KT M08/M10 A3034 RMK A01 T10821102  RH  086%=      5-min Rain = 0
KPD4 091416Z 26003KT M08/M10 A3034 RMK A01 T10801100  RH  086%=      5-min Rain = 0
KPD4 091417Z 27004KT M08/M10 A3034 RMK A01 T10791099  RH  086%=      5-min Rain = 0
KPD4 091418Z 27004KT M08/M10 A3034 RMK A01 T10781099  RH  085%=      5-min Rain = 0
KPD4 091419Z 28004KT M08/M10 A3034 RMK A01 T10771099  RH  085%=      5-min Rain = 0
KPD4 091420Z 27005KT M08/M10 A3034 RMK A01 T10761098  RH  084%=      5-min Rain = 0
KPD4 091421Z 27005KT M08/M10 A3034 RMK A01 T10751098  RH  084%=      5-min Rain = 0
KPD4 091422Z 28005KT M08/M10 A3035 RMK A01 T10751098  RH  083%=      5-min Rain = 0
KPD4 091423Z 27004KT M07/M10 A3035 RMK A01 T10741098  RH  083%=      5-min Rain = 0
KPD4 091424Z 28004KT M08/M10 A3035 RMK A01 T10751098  RH  083%=      5-min Rain = 0
KPD4 091425Z 27005KT M07/M10 A3035 RMK A01 T10741098  RH  083%=      5-min Rain = 0
KPD4 091426Z 27005KT M07/M10 A3035 RMK A01 T10741097  RH  083%=      5-min Rain = 0
KPD4 091427Z 27004KT M07/M10 A3035 RMK A01 T10731096  RH  084%=      5-min Rain = 0
KPD4 091428Z 27005KT M07/M10 A3035 RMK A01 T10721095  RH  084%=      5-min Rain = 0
KPD4 091429Z 27004KT M07/M10 A3035 RMK A01 T10711095  RH  083%=      5-min Rain = 0
KPD4 091430Z 26003KT M07/M10 A3035 RMK A01 T10711095  RH  083%=      5-min Rain = 0
KPD4 091431Z 25003KT M07/M09 A3034 RMK A01 T10701094  RH  083%=      5-min Rain = 0
KPD4 091432Z 26002KT M07/M09 A3034 RMK A01 T10691094  RH  083%=      5-min Rain = 0
KPD4 091433Z 26002KT M07/M09 A3034 RMK A01 T10681093  RH  083%=      5-min Rain = 0
KPD4 091434Z 25002KT M07/M09 A3034 RMK A01 T10671092  RH  083%=      5-min Rain = 0
KPD4 091435Z 23002KT M07/M09 A3034 RMK A01 T10661091  RH  083%=      5-min Rain = 0
KPD4 091436Z 23002KT M07/M09 A3034 RMK A01 T10651091  RH  082%=      5-min Rain = 0
KPD4 091437Z 24002KT M06/M09 A3034 RMK A01 T10641089  RH  083%=      5-min Rain = 0
KPD4 091438Z 25002KT M06/M09 A3035 RMK A01 T10631087  RH  083%=      5-min Rain = 0
KPD4 091439Z 24002KT M06/M09 A3034 RMK A01 T10621087  RH  083%=      5-min Rain = 0
KPD4 091440Z 24002KT M06/M09 A3034 RMK A01 T10621088  RH  082%=      5-min Rain = 0
KPD4 091441Z 25003KT M06/M09 A3034 RMK A01 T10611088  RH  081%=      5-min Rain = 0
KPD4 091442Z 26002KT M06/M09 A3034 RMK A01 T10611088  RH  081%=      5-min Rain = 0
KPD4 091443Z 27003KT M06/M09 A3034 RMK A01 T10601087  RH  082%=      5-min Rain = 0
KPD4 091444Z 27003KT M06/M09 A3034 RMK A01 T10601088  RH  081%=      5-min Rain = 0
KPD4 091445Z 27004KT M06/M09 A3034 RMK A01 T10601087  RH  081%=      5-min Rain = 0
KPD4 091446Z 28004KT M06/M09 A3034 RMK A01 T10601086  RH  082%=      5-min Rain = 0
KPD4 091447Z 28004KT M06/M09 A3034 RMK A01 T10591085  RH  082%=      5-min Rain = 0
KPD4 091448Z 28004KT M06/M08 A3034 RMK A01 T10581084  RH  082%=      5-min Rain = 0
KPD4 091449Z 28004KT M06/M08 A3034 RMK A01 T10571083  RH  082%=      5-min Rain = 0
KPD4 091450Z 28005KT M06/M08 A3034 RMK A01 T10551082  RH  081%=      5-min Rain = 0
KPD4 091451Z 28004KT M05/M08 A3034 RMK A01 T10531079  RH  082%=      5-min Rain = 0
KPD4 091452Z 29004KT M05/M08 A3034 RMK A01 T10511076  RH  082%=      5-min Rain = 0
KPD4 091453Z 28005KT M05/M08 A3034 RMK A01 T10491077  RH  081%=      5-min Rain = 0
KPD4 091454Z 29005KT M05/M08 A3034 RMK A01 T10481076  RH  080%=      5-min Rain = 0
KPD4 091455Z 29005KT M05/M07 A3035 RMK A01 T10461073  RH  081%=      5-min Rain = 0
KPD4 091456Z 29006KT M05/M07 A3035 RMK A01 T10451073  RH  080%=      5-min Rain = 0
KPD4 091457Z 29006KT M04/M07 A3035 RMK A01 T10431072  RH  080%=      5-min Rain = 0
KPD4 091458Z 29006KT M04/M07 A3035 RMK A01 T10421072  RH  080%=      5-min Rain = 0
KPD4 091459Z 30006KT M04/M07 A3035 RMK A01 T10411071  RH  079%=      5-min Rain = 0
KPD4 091500Z 29006KT M04/M07 A3035 RMK A01 T10391069  RH  080%=      5-min Rain = 0
KPD4 091501Z 30006KT M04/M07 A3035 RMK A01 T10371067  RH  080%=      5-min Rain = 0
KPD4 091502Z 29006KT M04/M07 A3035 RMK A01 T10361067  RH  079%=      5-min Rain = 0
KPD4 091503Z 29006KT M04/M07 A3035 RMK A01 T10361067  RH  079%=      5-min Rain = 0
KPD4 091504Z 30006KT M03/M07 A3035 RMK A01 T10341065  RH  079%=      5-min Rain = 0
KPD4 091505Z 29006KT M03/M06 A3035 RMK A01 T10321063  RH  079%=      5-min Rain = 0
KPD4 091506Z 30008KT M03/M06 A3036 RMK A01 T10321064  RH  078%=      5-min Rain = 0
KPD4 091507Z 30007KT M03/M07 A3035 RMK A01 T10311065  RH  077%=      5-min Rain = 0
KPD4 091508Z 30006KT M03/M07 A3035 RMK A01 T10301065  RH  077%=      5-min Rain = 0
KPD4 091509Z 30007KT M03/M06 A3035 RMK A01 T10291064  RH  077%=      5-min Rain = 0
KPD4 091510Z 30006KT M03/M07 A3036 RMK A01 T10291065  RH  076%=      5-min Rain = 0
KPD4 091511Z 30007KT M03/M06 A3036 RMK A01 T10281064  RH  077%=      5-min Rain = 0
KPD4 091512Z 30007KT M03/M06 A3036 RMK A01 T10271062  RH  077%=      5-min Rain = 0
KPD4 091513Z 30007KT M03/M06 A3036 RMK A01 T10261062  RH  076%=      5-min Rain = 0
KPD4 091514Z 30007KT M03/M06 A3036 RMK A01 T10261063  RH  076%=      5-min Rain = 0
KPD4 091515Z 30007KT M02/M06 A3036 RMK A01 T10241061  RH  076%=      5-min Rain = 0
KPD4 091516Z 30007KT M02/M06 A3036 RMK A01 T10231060  RH  076%=      5-min Rain = 0
KPD4 091517Z 30008KT M02/M06 A3036 RMK A01 T10221060  RH  075%=      5-min Rain = 0
KPD4 091518Z 30008KT M02/M06 A3036 RMK A01 T10211059  RH  075%=      5-min Rain = 0
KPD4 091519Z 30008KT M02/M06 A3036 RMK A01 T10201060  RH  074%=      5-min Rain = 0
KPD4 091520Z 31008KT M02/M06 A3036 RMK A01 T10191060  RH  074%=      5-min Rain = 0
KPD4 091521Z 31008KT M02/M06 A3036 RMK A01 T10191060  RH  074%=      5-min Rain = 0
KPD4 091522Z 31008KT M02/M06 A3036 RMK A01 T10181058  RH  074%=      5-min Rain = 0
KPD4 091523Z 31009KT M02/M06 A3036 RMK A01 T10171058  RH  074%=      5-min Rain = 0
KPD4 091524Z 31009KT M02/M06 A3036 RMK A01 T10161059  RH  073%=      5-min Rain = 0
KPD4 091525Z 31009KT M02/M06 A3036 RMK A01 T10161058  RH  073%=      5-min Rain = 0
KPD4 091526Z 31010KT M01/M06 A3036 RMK A01 T10141056  RH  073%=      5-min Rain = 0
KPD4 091527Z 31009KT M01/M06 A3036 RMK A01 T10131057  RH  072%=      5-min Rain = 0
KPD4 091528Z 31009KT M01/M06 A3036 RMK A01 T10131055  RH  073%=      5-min Rain = 0
KPD4 091529Z 31009KT M01/M05 A3036 RMK A01 T10121054  RH  073%=      5-min Rain = 0
KPD4 091530Z 31010KT M01/M05 A3036 RMK A01 T10111054  RH  072%=      5-min Rain = 0
KPD4 091531Z 31008KT M01/M05 A3036 RMK A01 T10101054  RH  072%=      5-min Rain = 0
KPD4 091532Z 31008KT M01/M05 A3036 RMK A01 T10091051  RH  073%=      5-min Rain = 0
KPD4 091533Z 31009KT M01/M05 A3036 RMK A01 T10071051  RH  072%=      5-min Rain = 0
KPD4 091534Z 31009KT M01/M05 A3036 RMK A01 T10071051  RH  072%=      5-min Rain = 0
KPD4 091535Z 32009KT M01/M05 A3036 RMK A01 T10061050  RH  072%=      5-min Rain = 0
KPD4 091536Z 32010KT M01/M05 A3037 RMK A01 T10051050  RH  071%=      5-min Rain = 0
KPD4 091537Z 32010KT M00/M05 A3037 RMK A01 T10041051  RH  071%=      5-min Rain = 0
KPD4 091538Z 32009KT M00/M05 A3037 RMK A01 T10041051  RH  071%=      5-min Rain = 0
KPD4 091539Z 32011KT M00/M05 A3037 RMK A01 T10031049  RH  071%=      5-min Rain = 0
KPD4 091540Z 32011KT M00/M05 A3037 RMK A01 T10021050  RH  070%=      5-min Rain = 0
KPD4 091541Z 32012KT M00/M05 A3037 RMK A01 T10011051  RH  069%=      5-min Rain = 0
KPD4 091542Z 32012KT 00/05 A3037 RMK A01 T00-00-50  RH  069%=      5-min Rain = 0
KPD4 091543Z 32011KT 00/M05 A3037 RMK A01 T00011048  RH  069%=      5-min Rain = 0
KPD4 091544Z 32013KT 00/M05 A3037 RMK A01 T00031049  RH  068%=      5-min Rain = 0
KPD4 091545Z 32011KT 00/M05 A3037 RMK A01 T00041050  RH  067%=      5-min Rain = 0
KPD4 091546Z 32012KT 00/M05 A3037 RMK A01 T00041049  RH  068%=      5-min Rain = 0
KPD4 091547Z 32012KT 01/M05 A3037 RMK A01 T00051049  RH  067%=      5-min Rain = 0
KPD4 091548Z 33013KT 01/M05 A3037 RMK A01 T00061050  RH  066%=      5-min Rain = 0
KPD4 091549Z 33012KT 01/M05 A3037 RMK A01 T00061051  RH  066%=      5-min Rain = 0
KPD4 091550Z 32010KT 01/M05 A3037 RMK A01 T00061049  RH  066%=      5-min Rain = 0
KPD4 091551Z 32012KT 01/M05 A3037 RMK A01 T00081047  RH  067%=      5-min Rain = 0
KPD4 091552Z 32012KT 01/M05 A3037 RMK A01 T00081049  RH  065%=      5-min Rain = 0
KPD4 091553Z 32014KT 01/M05 A3038 RMK A01 T00091049  RH  065%=      5-min Rain = 0
KPD4 091554Z 32012KT 01/M05 A3037 RMK A01 T00091051  RH  064%=      5-min Rain = 0
KPD4 091555Z 32011KT 01/M05 A3037 RMK A01 T00091050  RH  065%=      5-min Rain = 0
KPD4 091556Z 32011KT 01/M05 A3037 RMK A01 T00091050  RH  064%=      5-min Rain = 0
KPD4 091557Z 32010KT 01/M05 A3037 RMK A01 T00111048  RH  065%=      5-min Rain = 0
KPD4 091558Z 33010KT 01/M05 A3037 RMK A01 T00121049  RH  064%=      5-min Rain = 0
KPD4 091559Z 32009KT 01/M05 A3037 RMK A01 T00121050  RH  063%=      5-min Rain = 0
KPD4 091600Z 32010KT 01/M05 A3037 RMK A01 T00131048  RH  064%=      5-min Rain = 0
KPD4 091601Z 32009KT 01/M05 A3038 RMK A01 T00141048  RH  063%=      5-min Rain = 0
KPD4 091602Z 32010KT 02/M05 A3038 RMK A01 T00151048  RH  063%=      5-min Rain = 0
KPD4 091603Z 32010KT 02/M05 A3038 RMK A01 T00151051  RH  061%=      5-min Rain = 0
KPD4 091604Z 32011KT 02/M05 A3038 RMK A01 T00151051  RH  061%=      5-min Rain = 0
KPD4 091605Z 32010KT 01/M05 A3038 RMK A01 T00141052  RH  061%=      5-min Rain = 0
KPD4 091606Z 32009KT 02/M05 A3038 RMK A01 T00151051  RH  062%=      5-min Rain = 0
KPD4 091607Z 33011KT 02/M05 A3038 RMK A01 T00161050  RH  061%=      5-min Rain = 0
KPD4 091608Z 33009KT 02/M05 A3038 RMK A01 T00171052  RH  060%=      5-min Rain = 0
KPD4 091609Z 32009KT 02/M05 A3038 RMK A01 T00171051  RH  061%=      5-min Rain = 0
KPD4 091610Z 33006KT 02/M05 A3038 RMK A01 T00181051  RH  060%=      5-min Rain = 0
KPD4 091611Z 32008KT 02/M05 A3038 RMK A01 T00201048  RH  061%=      5-min Rain = 0
KPD4 091612Z 33009KT 02/M05 A3038 RMK A01 T00211050  RH  059%=      5-min Rain = 0
KPD4 091613Z 32008KT 02/M05 A3038 RMK A01 T00211051  RH  059%=      5-min Rain = 0
KPD4 091614Z 33008KT 02/M05 A3038 RMK A01 T00221050  RH  059%=      5-min Rain = 0
KPD4 091615Z 34008KT 02/M05 A3038 RMK A01 T00231050  RH  058%=      5-min Rain = 0
KPD4 091616Z 34007KT 02/M05 A3038 RMK A01 T00231051  RH  058%=      5-min Rain = 0
KPD4 091617Z 35009KT 02/M05 A3038 RMK A01 T00221051  RH  058%=      5-min Rain = 0
KPD4 091618Z 34008KT 02/M05 A3038 RMK A01 T00231053  RH  057%=      5-min Rain = 0
KPD4 091619Z 33008KT 02/M05 A3038 RMK A01 T00231054  RH  057%=      5-min Rain = 0
KPD4 091620Z 33008KT 02/M05 A3038 RMK A01 T00231051  RH  058%=      5-min Rain = 0
KPD4 091621Z 33008KT 03/M05 A3038 RMK A01 T00261048  RH  058%=      5-min Rain = 0
KPD4 091622Z 34007KT 03/M05 A3038 RMK A01 T00271049  RH  057%=      5-min Rain = 0
KPD4 091623Z 35008KT 03/M05 A3038 RMK A01 T00281051  RH  056%=      5-min Rain = 0
KPD4 091624Z 35008KT 03/M05 A3038 RMK A01 T00261053  RH  056%=      5-min Rain = 0
KPD4 091625Z 35007KT 03/M05 A3038 RMK A01 T00271052  RH  056%=      5-min Rain = 0
KPD4 091626Z 34007KT 03/M05 A3038 RMK A01 T00281051  RH  056%=      5-min Rain = 0
KPD4 091627Z 35008KT 03/M05 A3038 RMK A01 T00291050  RH  056%=      5-min Rain = 0
KPD4 091628Z 36007KT 03/M05 A3038 RMK A01 T00291052  RH  055%=      5-min Rain = 0
KPD4 091629Z 36008KT 03/M05 A3038 RMK A01 T00291052  RH  055%=      5-min Rain = 0
KPD4 091630Z 36006KT 03/M05 A3038 RMK A01 T00291051  RH  056%=      5-min Rain = 0
KPD4 091631Z 35007KT 03/M05 A3038 RMK A01 T00291051  RH  056%=      5-min Rain = 0
KPD4 091632Z 35007KT 03/M05 A3038 RMK A01 T00291053  RH  055%=      5-min Rain = 0
KPD4 091633Z 34006KT 03/M05 A3038 RMK A01 T00281054  RH  055%=      5-min Rain = 0
KPD4 091634Z 35007KT 03/M05 A3038 RMK A01 T00281052  RH  055%=      5-min Rain = 0
KPD4 091635Z 00007KT 03/M05 A3038 RMK A01 T00301052  RH  055%=      5-min Rain = 0
KPD4 091636Z 36006KT 03/M05 A3038 RMK A01 T00321052  RH  054%=      5-min Rain = 0
KPD4 091637Z 35007KT 03/M05 A3038 RMK A01 T00321053  RH  054%=      5-min Rain = 0
KPD4 091638Z 35006KT 03/M05 A3038 RMK A01 T00311052  RH  054%=      5-min Rain = 0
KPD4 091639Z 01008KT 03/M05 A3038 RMK A01 T00311053  RH  054%=      5-min Rain = 0
KPD4 091640Z 01007KT 03/M05 A3038 RMK A01 T00311054  RH  054%=      5-min Rain = 0
KPD4 091641Z 36007KT 03/M05 A3038 RMK A01 T00311052  RH  054%=      5-min Rain = 0
KPD4 091642Z 36007KT 03/M05 A3038 RMK A01 T00321052  RH  054%=      5-min Rain = 0
KPD4 091643Z 36007KT 03/M05 A3038 RMK A01 T00331054  RH  053%=      5-min Rain = 0
KPD4 091644Z 35007KT 03/M06 A3038 RMK A01 T00321055  RH  053%=      5-min Rain = 0
KPD4 091645Z 35007KT 03/M05 A3038 RMK A01 T00331053  RH  053%=      5-min Rain = 0
KPD4 091646Z 34007KT 03/M05 A3038 RMK A01 T00341053  RH  053%=      5-min Rain = 0
KPD4 091647Z 34007KT 04/M05 A3038 RMK A01 T00351052  RH  053%=      5-min Rain = 0
KPD4 091648Z 35008KT 04/M05 A3038 RMK A01 T00351053  RH  052%=      5-min Rain = 0
KPD4 091649Z 36008KT 04/M05 A3038 RMK A01 T00351054  RH  052%=      5-min Rain = 0
KPD4 091650Z 35008KT 04/M05 A3038 RMK A01 T00351053  RH  053%=      5-min Rain = 0
KPD4 091651Z 35008KT 04/M05 A3038 RMK A01 T00371052  RH  052%=      5-min Rain = 0
KPD4 091652Z 35006KT 04/M05 A3038 RMK A01 T00381053  RH  051%=      5-min Rain = 0
KPD4 091653Z 34009KT 04/M05 A3038 RMK A01 T00381051  RH  052%=      5-min Rain = 0
KPD4 091654Z 34009KT 04/M05 A3038 RMK A01 T00401052  RH  051%=      5-min Rain = 0
KPD4 091655Z 33007KT 04/M05 A3038 RMK A01 T00391052  RH  051%=      5-min Rain = 0
KPD4 091656Z 34009KT 04/M05 A3038 RMK A01 T00411050  RH  052%=      5-min Rain = 0
KPD4 091657Z 34009KT 04/M05 A3038 RMK A01 T00421052  RH  051%=      5-min Rain = 0
KPD4 091658Z 33008KT 04/M05 A3038 RMK A01 T00411053  RH  051%=      5-min Rain = 0
KPD4 091659Z 34007KT 04/M05 A3038 RMK A01 T00411052  RH  051%=      5-min Rain = 0
KPD4 091700Z 35009KT 04/M05 A3038 RMK A01 T00421051  RH  051%=      5-min Rain = 0
KPD4 091701Z 35009KT 04/M05 A3038 RMK A01 T00421052  RH  050%=      5-min Rain = 0
KPD4 091702Z 01008KT 04/M05 A3038 RMK A01 T00431051  RH  050%=      5-min Rain = 0
KPD4 091703Z 01008KT 05/M05 A3037 RMK A01 T00451051  RH  050%=      5-min Rain = 0
KPD4 091704Z 01007KT 04/M05 A3037 RMK A01 T00431053  RH  050%=      5-min Rain = 0
KPD4 091705Z 00006KT 04/M05 A3037 RMK A01 T00431053  RH  050%=      5-min Rain = 0
KPD4 091706Z 35005KT 04/M05 A3037 RMK A01 T00431052  RH  050%=      5-min Rain = 0
KPD4 091707Z 34008KT 04/M05 A3037 RMK A01 T00441050  RH  050%=      5-min Rain = 0
KPD4 091708Z 35009KT 05/M05 A3037 RMK A01 T00471050  RH  050%=      5-min Rain = 0
KPD4 091709Z 34009KT 05/M05 A3037 RMK A01 T00471052  RH  048%=      5-min Rain = 0
KPD4 091710Z 00008KT 05/M05 A3037 RMK A01 T00451053  RH  049%=      5-min Rain = 0
KPD4 091711Z 00007KT 05/M05 A3037 RMK A01 T00461052  RH  049%=      5-min Rain = 0
KPD4 091712Z 36006KT 05/M05 A3037 RMK A01 T00461052  RH  049%=      5-min Rain = 0
KPD4 091713Z 34005KT 05/M05 A3037 RMK A01 T00481050  RH  049%=      5-min Rain = 0
KPD4 091714Z 35007KT 05/M05 A3037 RMK A01 T00511048  RH  049%=      5-min Rain = 0
KPD4 091715Z 36007KT 05/M05 A3038 RMK A01 T00511051  RH  048%=      5-min Rain = 0
KPD4 091716Z 35004KT 05/M05 A3038 RMK A01 T00521050  RH  048%=      5-min Rain = 0
KPD4 091717Z 36005KT 05/M05 A3038 RMK A01 T00531049  RH  048%=      5-min Rain = 0
KPD4 091718Z 01007KT 05/M05 A3037 RMK A01 T00541050  RH  047%=      5-min Rain = 0
KPD4 091719Z 01005KT 05/M05 A3037 RMK A01 T00521053  RH  047%=      5-min Rain = 0
KPD4 091720Z 35006KT 05/M05 A3037 RMK A01 T00501053  RH  047%=      5-min Rain = 0
KPD4 091721Z 35006KT 05/M05 A3037 RMK A01 T00501053  RH  047%=      5-min Rain = 0
KPD4 091722Z 01007KT 05/M05 A3037 RMK A01 T00491053  RH  047%=      5-min Rain = 0
KPD4 091723Z 01006KT 05/M05 A3037 RMK A01 T00511051  RH  048%=      5-min Rain = 0
KPD4 091724Z 35005KT 05/M05 A3037 RMK A01 T00521051  RH  047%=      5-min Rain = 0
KPD4 091725Z 01006KT 05/M05 A3037 RMK A01 T00521051  RH  047%=      5-min Rain = 0
KPD4 091726Z 01005KT 05/M05 A3037 RMK A01 T00541050  RH  047%=      5-min Rain = 0
KPD4 091727Z 00005KT 06/M05 A3037 RMK A01 T00561050  RH  046%=      5-min Rain = 0
KPD4 091728Z 34003KT 05/M05 A3037 RMK A01 T00541052  RH  046%=      5-min Rain = 0
KPD4 091729Z 32005KT 05/M05 A3037 RMK A01 T00541051  RH  047%=      5-min Rain = 0
KPD4 091730Z 35006KT 05/M05 A3037 RMK A01 T00541052  RH  047%=      5-min Rain = 0
KPD4 091731Z 35006KT 05/M05 A3037 RMK A01 T00541052  RH  046%=      5-min Rain = 0
KPD4 091732Z 35006KT 06/M05 A3037 RMK A01 T00571049  RH  046%=      5-min Rain = 0
KPD4 091733Z 01006KT 06/M05 A3037 RMK A01 T00591049  RH  046%=      5-min Rain = 0
KPD4 091734Z 35007KT 06/M05 A3037 RMK A01 T00581051  RH  045%=      5-min Rain = 0
KPD4 091735Z 33007KT 06/M05 A3037 RMK A01 T00581050  RH  046%=      5-min Rain = 0
KPD4 091736Z 33006KT 06/M05 A3037 RMK A01 T00571052  RH  045%=      5-min Rain = 0
KPD4 091737Z 32006KT 06/M05 A3037 RMK A01 T00561051  RH  046%=      5-min Rain = 0
KPD4 091738Z 33009KT 06/M05 A3037 RMK A01 T00571051  RH  046%=      5-min Rain = 0
KPD4 091739Z 33007KT 06/M05 A3037 RMK A01 T00581052  RH  045%=      5-min Rain = 0
KPD4 091740Z 34007KT 06/M05 A3037 RMK A01 T00591051  RH  045%=      5-min Rain = 0
KPD4 091741Z 33008KT 06/M05 A3037 RMK A01 T00611051  RH  045%=      5-min Rain = 0
KPD4 091742Z 34006KT 06/M05 A3037 RMK A01 T00611051  RH  045%=      5-min Rain = 0
KPD4 091743Z 34005KT 06/M05 A3037 RMK A01 T00611052  RH  044%=      5-min Rain = 0
KPD4 091744Z 01006KT 06/M05 A3036 RMK A01 T00621050  RH  045%=      5-min Rain = 0
KPD4 091745Z 35007KT 06/M05 A3036 RMK A01 T00641048  RH  044%=      5-min Rain = 0
KPD4 091746Z 34005KT 06/M05 A3036 RMK A01 T00631050  RH  044%=      5-min Rain = 0
KPD4 091747Z 33008KT 06/M05 A3036 RMK A01 T00631050  RH  044%=      5-min Rain = 0
KPD4 091748Z 34006KT 07/M05 A3036 RMK A01 T00651050  RH  044%=      5-min Rain = 0
KPD4 091749Z 34005KT 07/M05 A3036 RMK A01 T00681048  RH  043%=      5-min Rain = 0
KPD4 091750Z 33006KT 07/M05 A3036 RMK A01 T00681050  RH  043%=      5-min Rain = 0
KPD4 091751Z 32006KT 07/M05 A3036 RMK A01 T00671052  RH  042%=      5-min Rain = 0
KPD4 091752Z 32005KT 07/M05 A3036 RMK A01 T00651052  RH  043%=      5-min Rain = 0
KPD4 091753Z 33006KT 07/M05 A3036 RMK A01 T00671049  RH  044%=      5-min Rain = 0
KPD4 091754Z 33008KT 07/M05 A3036 RMK A01 T00701049  RH  043%=      5-min Rain = 0
KPD4 091755Z 33006KT 07/M05 A3036 RMK A01 T00691050  RH  042%=      5-min Rain = 0
KPD4 091756Z 33006KT 07/M05 A3036 RMK A01 T00671052  RH  042%=      5-min Rain = 0
KPD4 091757Z 33006KT 07/M05 A3036 RMK A01 T00651051  RH  043%=      5-min Rain = 0
KPD4 091758Z 33006KT 07/M05 A3036 RMK A01 T00651051  RH  043%=      5-min Rain = 0
KPD4 091759Z 36005KT 06/M05 A3036 RMK A01 T00641051  RH  044%=      5-min Rain = 0
KPD4 091800Z 35007KT 07/M05 A3036 RMK A01 T00651049  RH  044%=      5-min Rain = 0
KPD4 091801Z 35005KT 07/M05 A3036 RMK A01 T00691048  RH  043%=      5-min Rain = 0
KPD4 091802Z 35004KT 07/M05 A3036 RMK A01 T00701049  RH  042%=      5-min Rain = 0
KPD4 091803Z 36007KT 07/M05 A3036 RMK A01 T00691050  RH  042%=      5-min Rain = 0
KPD4 091804Z 36006KT 07/M05 A3036 RMK A01 T00701049  RH  042%=      5-min Rain = 0
KPD4 091805Z 00008KT 07/M05 A3036 RMK A01 T00711049  RH  042%=      5-min Rain = 0
KPD4 091806Z 35007KT 07/M05 A3036 RMK A01 T00721050  RH  041%=      5-min Rain = 0
KPD4 091807Z 34006KT 07/M05 A3036 RMK A01 T00701052  RH  041%=      5-min Rain = 0
KPD4 091808Z 35006KT 07/M05 A3035 RMK A01 T00671052  RH  043%=      5-min Rain = 0
KPD4 091809Z 00007KT 07/M05 A3035 RMK A01 T00681050  RH  043%=      5-min Rain = 0
KPD4 091810Z 02005KT 07/M05 A3035 RMK A01 T00681050  RH  043%=      5-min Rain = 0
KPD4 091811Z 33006KT 07/M05 A3035 RMK A01 T00701048  RH  043%=      5-min Rain = 0
KPD4 091812Z 34008KT 07/M05 A3035 RMK A01 T00731046  RH  042%=      5-min Rain = 0
KPD4 091813Z 35007KT 07/M05 A3035 RMK A01 T00741047  RH  042%=      5-min Rain = 0
KPD4 091814Z 33006KT 08/M05 A3035 RMK A01 T00751048  RH  042%=      5-min Rain = 0
KPD4 091815Z 33007KT 08/M05 A3035 RMK A01 T00751048  RH  041%=      5-min Rain = 0
KPD4 091816Z 33009KT 08/M05 A3035 RMK A01 T00761050  RH  040%=      5-min Rain = 0
KPD4 091817Z 33009KT 08/M05 A3035 RMK A01 T00771048  RH  041%=      5-min Rain = 0
KPD4 091818Z 33007KT 08/M05 A3035 RMK A01 T00781048  RH  040%=      5-min Rain = 0
KPD4 091819Z 35006KT 08/M05 A3035 RMK A01 T00781048  RH  041%=      5-min Rain = 0
KPD4 091820Z 34004KT 08/M05 A3035 RMK A01 T00761050  RH  040%=      5-min Rain = 0
KPD4 091821Z 31007KT 08/M05 A3035 RMK A01 T00751048  RH  041%=      5-min Rain = 0
KPD4 091822Z 32009KT 08/M05 A3035 RMK A01 T00801046  RH  041%=      5-min Rain = 0
KPD4 091823Z 33010KT 08/M05 A3035 RMK A01 T00821048  RH  040%=      5-min Rain = 0
KPD4 091824Z 33007KT 08/M05 A3035 RMK A01 T00821048  RH  039%=      5-min Rain = 0
KPD4 091825Z 33006KT 08/M05 A3034 RMK A01 T00791051  RH  039%=      5-min Rain = 0
KPD4 091826Z 33008KT 08/M05 A3034 RMK A01 T00781050  RH  040%=      5-min Rain = 0
KPD4 091827Z 33006KT 08/M05 A3034 RMK A01 T00781051  RH  040%=      5-min Rain = 0
KPD4 091828Z 32008KT 08/M05 A3034 RMK A01 T00791051  RH  039%=      5-min Rain = 0
KPD4 091829Z 33007KT 08/M05 A3034 RMK A01 T00791051  RH  039%=      5-min Rain = 0
KPD4 091830Z 33006KT 08/M05 A3034 RMK A01 T00801053  RH  039%=      5-min Rain = 0
KPD4 091831Z 34005KT 08/M06 A3034 RMK A01 T00801055  RH  038%=      5-min Rain = 0
KPD4 091832Z 36005KT 08/M05 A3034 RMK A01 T00801054  RH  038%=      5-min Rain = 0
KPD4 091833Z 01006KT 08/M05 A3033 RMK A01 T00811053  RH  038%=      5-min Rain = 0
KPD4 091834Z 35004KT 08/M05 A3033 RMK A01 T00801051  RH  039%=      5-min Rain = 0
KPD4 091835Z 01004KT 08/M05 A3033 RMK A01 T00811049  RH  039%=      5-min Rain = 0
KPD4 091836Z 00004KT 08/M05 A3033 RMK A01 T00811051  RH  039%=      5-min Rain = 0
KPD4 091837Z 36005KT 08/M05 A3033 RMK A01 T00801052  RH  039%=      5-min Rain = 0
KPD4 091838Z 34005KT 08/M05 A3033 RMK A01 T00801050  RH  039%=      5-min Rain = 0
KPD4 091839Z 33004KT 08/M05 A3033 RMK A01 T00821049  RH  039%=      5-min Rain = 0
KPD4 091840Z 33006KT 08/M05 A3033 RMK A01 T00821051  RH  039%=      5-min Rain = 0
KPD4 091841Z 35005KT 08/M05 A3033 RMK A01 T00801053  RH  039%=      5-min Rain = 0
KPD4 091842Z 35005KT 08/M05 A3033 RMK A01 T00781053  RH  039%=      5-min Rain = 0
KPD4 091843Z 35004KT 08/M05 A3033 RMK A01 T00801052  RH  039%=      5-min Rain = 0
KPD4 091844Z 35004KT 08/M05 A3033 RMK A01 T00811052  RH  038%=      5-min Rain = 0
KPD4 091845Z 00003KT 08/M05 A3033 RMK A01 T00801052  RH  039%=      5-min Rain = 0
KPD4 091846Z 34005KT 08/M05 A3033 RMK A01 T00821050  RH  039%=      5-min Rain = 0
KPD4 091847Z 32005KT 08/M05 A3033 RMK A01 T00821051  RH  038%=      5-min Rain = 0
KPD4 091848Z 31006KT 08/M05 A3033 RMK A01 T00831052  RH  038%=      5-min Rain = 0
KPD4 091849Z 33006KT 08/M05 A3033 RMK A01 T00831054  RH  038%=      5-min Rain = 0
KPD4 091850Z 35005KT 08/M06 A3033 RMK A01 T00841055  RH  037%=      5-min Rain = 0
KPD4 091851Z 34006KT 09/M05 A3033 RMK A01 T00851054  RH  037%=      5-min Rain = 0
KPD4 091852Z 34005KT 09/M06 A3033 RMK A01 T00861056  RH  036%=      5-min Rain = 0
KPD4 091853Z 34008KT 09/M05 A3033 RMK A01 T00861053  RH  037%=      5-min Rain = 0
KPD4 091854Z 34005KT 09/M06 A3033 RMK A01 T00851055  RH  037%=      5-min Rain = 0
KPD4 091855Z 00004KT 08/M06 A3033 RMK A01 T00831055  RH  037%=      5-min Rain = 0
KPD4 091856Z 35006KT 08/M05 A3033 RMK A01 T00841053  RH  037%=      5-min Rain = 0
KPD4 091857Z 35007KT 08/M05 A3033 RMK A01 T00841052  RH  038%=      5-min Rain = 0
KPD4 091858Z 34005KT 08/M05 A3033 RMK A01 T00841053  RH  037%=      5-min Rain = 0
KPD4 091859Z 33003KT 08/M05 A3033 RMK A01 T00841052  RH  038%=      5-min Rain = 0
KPD4 091900Z 34008KT 09/M05 A3033 RMK A01 T00851054  RH  037%=      5-min Rain = 0
KPD4 091901Z 33007KT 09/M06 A3033 RMK A01 T00861057  RH  036%=      5-min Rain = 0
KPD4 091902Z 34007KT 09/M06 A3033 RMK A01 T00891055  RH  036%=      5-min Rain = 0
KPD4 091903Z 36004KT 09/M06 A3033 RMK A01 T00911057  RH  035%=      5-min Rain = 0
KPD4 091904Z 01004KT 09/M06 A3033 RMK A01 T00931055  RH  035%=      5-min Rain = 0
KPD4 091905Z 34009KT 10/M06 A3033 RMK A01 T00951055  RH  034%=      5-min Rain = 0
KPD4 091906Z 35007KT 10/M06 A3033 RMK A01 T00961055  RH  034%=      5-min Rain = 0
KPD4 091907Z 35008KT 10/M06 A3033 RMK A01 T00951056  RH  034%=      5-min Rain = 0
KPD4 091908Z 36008KT 10/M05 A3033 RMK A01 T00971053  RH  034%=      5-min Rain = 0
KPD4 091909Z 35010KT 10/M06 A3033 RMK A01 T00981055  RH  034%=      5-min Rain = 0
KPD4 091910Z 35008KT 09/M06 A3033 RMK A01 T00941060  RH  033%=      5-min Rain = 0
KPD4 091911Z 34004KT 09/M06 A3033 RMK A01 T00911058  RH  034%=      5-min Rain = 0
KPD4 091912Z 34005KT 09/M06 A3033 RMK A01 T00911055  RH  035%=      5-min Rain = 0
KPD4 091913Z 35008KT 10/M05 A3033 RMK A01 T00951052  RH  035%=      5-min Rain = 0
KPD4 091914Z 34009KT 10/M05 A3033 RMK A01 T00961054  RH  034%=      5-min Rain = 0
KPD4 091915Z 33008KT 10/M06 A3033 RMK A01 T00961056  RH  034%=      5-min Rain = 0
KPD4 091916Z 32008KT 10/M06 A3033 RMK A01 T00961057  RH  033%=      5-min Rain = 0
KPD4 091917Z 35009KT 10/M06 A3033 RMK A01 T00961057  RH  033%=      5-min Rain = 0
KPD4 091918Z 35009KT 10/M06 A3033 RMK A01 T00961058  RH  033%=      5-min Rain = 0
KPD4 091919Z 34010KT 10/M06 A3033 RMK A01 T00951058  RH  033%=      5-min Rain = 0
KPD4 091920Z 35010KT 10/M06 A3033 RMK A01 T00961058  RH  033%=      5-min Rain = 0
KPD4 091921Z 35012KT 10/M06 A3033 RMK A01 T00951059  RH  033%=      5-min Rain = 0
KPD4 091922Z 34010KT 10/M06 A3033 RMK A01 T00951060  RH  033%=      5-min Rain = 0
KPD4 091923Z 34010KT 10/M06 A3033 RMK A01 T00951059  RH  033%=      5-min Rain = 0
KPD4 091924Z 34008KT 09/M06 A3033 RMK A01 T00941059  RH  034%=      5-min Rain = 0
KPD4 091925Z 36006KT 09/M06 A3033 RMK A01 T00931059  RH  034%=      5-min Rain = 0
KPD4 091926Z 34007KT 09/M06 A3033 RMK A01 T00921059  RH  034%=      5-min Rain = 0
KPD4 091927Z 00009KT 09/M06 A3033 RMK A01 T00941060  RH  033%=      5-min Rain = 0
KPD4 091928Z 02009KT 09/M06 A3033 RMK A01 T00941063  RH  032%=      5-min Rain = 0
KPD4 091929Z 02010KT 09/M06 A3033 RMK A01 T00931063  RH  032%=      5-min Rain = 0
KPD4 091930Z 01011KT 09/M07 A3033 RMK A01 T00921065  RH  032%=      5-min Rain = 0
KPD4 091931Z 01012KT 09/M07 A3033 RMK A01 T00911070  RH  031%=      5-min Rain = 0
KPD4 091932Z 01011KT 09/M07 A3033 RMK A01 T00901071  RH  031%=      5-min Rain = 0
KPD4 091933Z 01011KT 09/M07 A3033 RMK A01 T00901070  RH  032%=      5-min Rain = 0
KPD4 091934Z 01010KT 09/M07 A3033 RMK A01 T00891067  RH  032%=      5-min Rain = 0
KPD4 091935Z 01009KT 09/M07 A3033 RMK A01 T00891067  RH  033%=      5-min Rain = 0
KPD4 091936Z 01007KT 09/M07 A3033 RMK A01 T00881065  RH  033%=      5-min Rain = 0
KPD4 091937Z 01009KT 09/M06 A3033 RMK A01 T00881063  RH  034%=      5-min Rain = 0
KPD4 091938Z 02010KT 09/M06 A3033 RMK A01 T00881064  RH  033%=      5-min Rain = 0
KPD4 091939Z 02010KT 09/M06 A3032 RMK A01 T00881064  RH  033%=      5-min Rain = 0
KPD4 091940Z 01010KT 09/M06 A3032 RMK A01 T00891063  RH  034%=      5-min Rain = 0
KPD4 091941Z 01009KT 09/M06 A3032 RMK A01 T00891062  RH  034%=      5-min Rain = 0
KPD4 091942Z 01009KT 09/M06 A3032 RMK A01 T00891061  RH  034%=      5-min Rain = 0
KPD4 091943Z 36011KT 09/M06 A3032 RMK A01 T00881061  RH  034%=      5-min Rain = 0
KPD4 091944Z 36011KT 09/M06 A3032 RMK A01 T00881062  RH  034%=      5-min Rain = 0
KPD4 091945Z 36008KT 09/M06 A3032 RMK A01 T00891062  RH  034%=      5-min Rain = 0
KPD4 091946Z 36010KT 09/M06 A3032 RMK A01 T00891062  RH  034%=      5-min Rain = 0
KPD4 091947Z 00012KT 09/M06 A3032 RMK A01 T00891063  RH  034%=      5-min Rain = 0
KPD4 091948Z 01011KT 09/M06 A3032 RMK A01 T00891061  RH  034%=      5-min Rain = 0
KPD4 091949Z 36009KT 09/M06 A3032 RMK A01 T00881061  RH  034%=      5-min Rain = 0
KPD4 091950Z 01009KT 09/M06 A3032 RMK A01 T00871061  RH  034%=      5-min Rain = 0
KPD4 091951Z 36009KT 09/M06 A3032 RMK A01 T00871062  RH  034%=      5-min Rain = 0
KPD4 091952Z 35008KT 09/M06 A3032 RMK A01 T00891061  RH  034%=      5-min Rain = 0
KPD4 091953Z 01010KT 09/M06 A3032 RMK A01 T00911062  RH  033%=      5-min Rain = 0
KPD4 091954Z 01010KT 09/M07 A3032 RMK A01 T00921067  RH  032%=      5-min Rain = 0
KPD4 091955Z 02010KT 09/M07 A3032 RMK A01 T00911067  RH  032%=      5-min Rain = 0
KPD4 091956Z 02010KT 09/M07 A3032 RMK A01 T00891066  RH  033%=      5-min Rain = 0
KPD4 091957Z 02008KT 09/M07 A3032 RMK A01 T00871065  RH  033%=      5-min Rain = 0
KPD4 091958Z 01008KT 09/M06 A3032 RMK A01 T00881063  RH  034%=      5-min Rain = 0
KPD4 091959Z 35008KT 09/M06 A3032 RMK A01 T00891062  RH  034%=      5-min Rain = 0
KPD4 092000Z 36009KT 09/M06 A3032 RMK A01 T00891063  RH  034%=      5-min Rain = 0
KPD4 092001Z 36007KT 09/M06 A3032 RMK A01 T00901063  RH  033%=      5-min Rain = 0
KPD4 092002Z 01007KT 09/M06 A3032 RMK A01 T00901062  RH  034%=      5-min Rain = 0
KPD4 092003Z 02010KT 09/M06 A3032 RMK A01 T00921063  RH  033%=      5-min Rain = 0
KPD4 092004Z 01009KT 09/M07 A3032 RMK A01 T00931066  RH  032%=      5-min Rain = 0
KPD4 092005Z 01009KT 09/M07 A3032 RMK A01 T00921066  RH  032%=      5-min Rain = 0
KPD4 092006Z 00011KT 09/M07 A3031 RMK A01 T00921068  RH  032%=      5-min Rain = 0
KPD4 092007Z 01010KT 09/M07 A3031 RMK A01 T00911067  RH  032%=      5-min Rain = 0
KPD4 092008Z 03010KT 09/M07 A3031 RMK A01 T00911066  RH  032%=      5-min Rain = 0
KPD4 092009Z 03011KT 09/M07 A3031 RMK A01 T00921065  RH  032%=      5-min Rain = 0
KPD4 092010Z 04008KT 09/M07 A3031 RMK A01 T00891067  RH  032%=      5-min Rain = 0
KPD4 092011Z 02007KT 09/M07 A3031 RMK A01 T00881066  RH  033%=      5-min Rain = 0
KPD4 092012Z 03006KT 09/M07 A3031 RMK A01 T00881066  RH  033%=      5-min Rain = 0
KPD4 092013Z 03007KT 09/M07 A3031 RMK A01 T00871065  RH  033%=      5-min Rain = 0
KPD4 092014Z 02009KT 09/M07 A3031 RMK A01 T00871065  RH  033%=      5-min Rain = 0
KPD4 092015Z 01011KT 09/M06 A3031 RMK A01 T00881064  RH  033%=      5-min Rain = 0
KPD4 092016Z 01010KT 09/M07 A3031 RMK A01 T00881065  RH  033%=      5-min Rain = 0
KPD4 092017Z 01007KT 09/M07 A3031 RMK A01 T00881065  RH  033%=      5-min Rain = 0
KPD4 092018Z 01007KT 09/M06 A3031 RMK A01 T00871064  RH  034%=      5-min Rain = 0
KPD4 092019Z 01007KT 09/M06 A3031 RMK A01 T00871063  RH  034%=      5-min Rain = 0
KPD4 092020Z 01008KT 09/M06 A3031 RMK A01 T00891062  RH  034%=      5-min Rain = 0
KPD4 092021Z 02010KT 09/M06 A3031 RMK A01 T00901061  RH  034%=      5-min Rain = 0
KPD4 092022Z 02011KT 09/M07 A3031 RMK A01 T00901065  RH  033%=      5-min Rain = 0
KPD4 092023Z 03009KT 09/M07 A3031 RMK A01 T00881067  RH  033%=      5-min Rain = 0
KPD4 092024Z 04009KT 09/M07 A3031 RMK A01 T00871067  RH  033%=      5-min Rain = 0
KPD4 092025Z 04009KT 09/M07 A3031 RMK A01 T00871067  RH  033%=      5-min Rain = 0
KPD4 092026Z 03009KT 09/M07 A3031 RMK A01 T00871067  RH  033%=      5-min Rain = 0
KPD4 092027Z 03009KT 09/M07 A3031 RMK A01 T00871067  RH  033%=      5-min Rain = 0
KPD4 092028Z 03011KT 09/M07 A3031 RMK A01 T00891066  RH  033%=      5-min Rain = 0
KPD4 092029Z 03010KT 09/M07 A3031 RMK A01 T00901066  RH  033%=      5-min Rain = 0
KPD4 092030Z 01009KT 09/M07 A3031 RMK A01 T00911065  RH  032%=      5-min Rain = 0
KPD4 092031Z 01009KT 09/M07 A3031 RMK A01 T00921066  RH  032%=      5-min Rain = 0
KPD4 092032Z 02009KT 09/M06 A3031 RMK A01 T00941064  RH  032%=      5-min Rain = 0
KPD4 092033Z 03010KT 10/M06 A3031 RMK A01 T00951064  RH  032%=      5-min Rain = 0
KPD4 092034Z 03011KT 10/M07 A3031 RMK A01 T00951065  RH  032%=      5-min Rain = 0
KPD4 092035Z 02011KT 10/M06 A3031 RMK A01 T00951064  RH  032%=      5-min Rain = 0
KPD4 092036Z 02010KT 10/M06 A3031 RMK A01 T00951064  RH  032%=      5-min Rain = 0
KPD4 092037Z 02008KT 10/M07 A3031 RMK A01 T00951065  RH  032%=      5-min Rain = 0
KPD4 092038Z 01007KT 09/M07 A3031 RMK A01 T00941065  RH  032%=      5-min Rain = 0
KPD4 092039Z 00009KT 10/M06 A3031 RMK A01 T00951064  RH  032%=      5-min Rain = 0
KPD4 092040Z 02010KT 09/M07 A3031 RMK A01 T00941065  RH  032%=      5-min Rain = 0
KPD4 092041Z 02008KT 09/M07 A3031 RMK A01 T00931066  RH  032%=      5-min Rain = 0
KPD4 092042Z 02009KT 09/M07 A3031 RMK A01 T00921067  RH  032%=      5-min Rain = 0
KPD4 092043Z 03010KT 09/M07 A3031 RMK A01 T00931065  RH  032%=      5-min Rain = 0
KPD4 092044Z 03010KT 10/M07 A3031 RMK A01 T00951067  RH  031%=      5-min Rain = 0
KPD4 092045Z 03009KT 09/M07 A3031 RMK A01 T00941071  RH  030%=      5-min Rain = 0
KPD4 092046Z 02008KT 09/M07 A3031 RMK A01 T00921072  RH  031%=      5-min Rain = 0
KPD4 092047Z 02006KT 09/M07 A3031 RMK A01 T00921070  RH  031%=      5-min Rain = 0
KPD4 092048Z 03005KT 09/M07 A3031 RMK A01 T00921068  RH  032%=      5-min Rain = 0
KPD4 092049Z 04008KT 09/M07 A3031 RMK A01 T00941068  RH  031%=      5-min Rain = 0
KPD4 092050Z 04008KT 09/M07 A3031 RMK A01 T00931067  RH  031%=      5-min Rain = 0
KPD4 092051Z 04009KT 09/M07 A3031 RMK A01 T00941066  RH  032%=      5-min Rain = 0
KPD4 092052Z 03007KT 09/M07 A3031 RMK A01 T00941067  RH  031%=      5-min Rain = 0
KPD4 092053Z 03007KT 09/M07 A3031 RMK A01 T00941068  RH  031%=      5-min Rain = 0
KPD4 092054Z 04009KT 09/M07 A3031 RMK A01 T00931068  RH  031%=      5-min Rain = 0
KPD4 092055Z 05008KT 09/M07 A3031 RMK A01 T00921070  RH  031%=      5-min Rain = 0
KPD4 092056Z 05007KT 09/M07 A3031 RMK A01 T00921069  RH  031%=      5-min Rain = 0
KPD4 092057Z 03007KT 09/M07 A3031 RMK A01 T00931067  RH  032%=      5-min Rain = 0
KPD4 092058Z 02009KT 09/M07 A3031 RMK A01 T00941067  RH  031%=      5-min Rain = 0
KPD4 092059Z 02008KT 10/M07 A3031 RMK A01 T00951069  RH  031%=      5-min Rain = 0
KPD4 092100Z 03009KT 10/M07 A3031 RMK A01 T00961069  RH  031%=      5-min Rain = 0
KPD4 092101Z 02008KT 10/M07 A3031 RMK A01 T00961069  RH  031%=      5-min Rain = 0
KPD4 092102Z 02009KT 10/M07 A3031 RMK A01 T00961070  RH  030%=      5-min Rain = 0
KPD4 092103Z 02011KT 10/M07 A3031 RMK A01 T00961072  RH  030%=      5-min Rain = 0
KPD4 092104Z 03009KT 10/M07 A3031 RMK A01 T00951074  RH  029%=      5-min Rain = 0
KPD4 092105Z 02008KT 10/M07 A3031 RMK A01 T00951073  RH  030%=      5-min Rain = 0
KPD4 092106Z 02009KT 10/M07 A3032 RMK A01 T00951074  RH  030%=      5-min Rain = 0
KPD4 092107Z 02008KT 10/M07 A3031 RMK A01 T00951072  RH  030%=      5-min Rain = 0
KPD4 092108Z 02008KT 10/M07 A3031 RMK A01 T00951070  RH  031%=      5-min Rain = 0
KPD4 092109Z 02010KT 10/M07 A3032 RMK A01 T00961067  RH  031%=      5-min Rain = 0
KPD4 092110Z 02007KT 10/M07 A3032 RMK A01 T00961066  RH  031%=      5-min Rain = 0
KPD4 092111Z 03007KT 10/M07 A3031 RMK A01 T00961065  RH  032%=      5-min Rain = 0
KPD4 092112Z 03006KT 10/M07 A3031 RMK A01 T00971065  RH  031%=      5-min Rain = 0
KPD4 092113Z 01007KT 10/M06 A3032 RMK A01 T01001062  RH  031%=      5-min Rain = 0
KPD4 092114Z 00007KT 10/M06 A3032 RMK A01 T00991063  RH  031%=      5-min Rain = 0
KPD4 092115Z 02008KT 10/M06 A3032 RMK A01 T00991064  RH  031%=      5-min Rain = 0
KPD4 092116Z 01006KT 10/M07 A3032 RMK A01 T00971066  RH  031%=      5-min Rain = 0
KPD4 092117Z 36007KT 10/M07 A3032 RMK A01 T00961066  RH  031%=      5-min Rain = 0
KPD4 092118Z 02008KT 10/M07 A3031 RMK A01 T00971065  RH  031%=      5-min Rain = 0
KPD4 092119Z 02010KT 10/M06 A3032 RMK A01 T00971064  RH  032%=      5-min Rain = 0
KPD4 092120Z 01009KT 10/M07 A3032 RMK A01 T00951067  RH  031%=      5-min Rain = 0
KPD4 092121Z 01007KT 09/M07 A3032 RMK A01 T00921069  RH  031%=      5-min Rain = 0
KPD4 092122Z 01005KT 09/M07 A3032 RMK A01 T00911069  RH  032%=      5-min Rain = 0
KPD4 092123Z 01007KT 09/M07 A3032 RMK A01 T00921068  RH  032%=      5-min Rain = 0
KPD4 092124Z 01009KT 09/M07 A3032 RMK A01 T00931067  RH  032%=      5-min Rain = 0
KPD4 092125Z 36008KT 09/M07 A3032 RMK A01 T00931067  RH  032%=      5-min Rain = 0
KPD4 092126Z 01010KT 09/M07 A3032 RMK A01 T00931066  RH  032%=      5-min Rain = 0
KPD4 092127Z 36009KT 09/M07 A3032 RMK A01 T00941065  RH  032%=      5-min Rain = 0
KPD4 092128Z 00008KT 10/M06 A3032 RMK A01 T00951064  RH  032%=      5-min Rain = 0
KPD4 092129Z 00009KT 10/M06 A3032 RMK A01 T00971063  RH  032%=      5-min Rain = 0
KPD4 092130Z 00008KT 10/M06 A3032 RMK A01 T00971064  RH  032%=      5-min Rain = 0
KPD4 092131Z 00009KT 10/M06 A3032 RMK A01 T00961064  RH  032%=      5-min Rain = 0
KPD4 092132Z 00010KT 10/M06 A3032 RMK A01 T00951064  RH  032%=      5-min Rain = 0
KPD4 092133Z 01011KT 09/M07 A3032 RMK A01 T00941065  RH  032%=      5-min Rain = 0
KPD4 092134Z 00009KT 09/M07 A3032 RMK A01 T00921065  RH  032%=      5-min Rain = 0
KPD4 092135Z 01010KT 09/M07 A3032 RMK A01 T00901066  RH  033%=      5-min Rain = 0
KPD4 092136Z 36009KT 09/M07 A3032 RMK A01 T00881066  RH  033%=      5-min Rain = 0
KPD4 092137Z 36009KT 09/M07 A3032 RMK A01 T00871065  RH  033%=      5-min Rain = 0
KPD4 092138Z 00009KT 09/M06 A3032 RMK A01 T00871064  RH  034%=      5-min Rain = 0
KPD4 092139Z 36007KT 09/M06 A3032 RMK A01 T00881063  RH  034%=      5-min Rain = 0
KPD4 092140Z 35006KT 09/M06 A3032 RMK A01 T00891063  RH  033%=      5-min Rain = 0
KPD4 092141Z 35006KT 09/M06 A3032 RMK A01 T00911062  RH  033%=      5-min Rain = 0
KPD4 092142Z 35008KT 09/M06 A3032 RMK A01 T00931062  RH  033%=      5-min Rain = 0
KPD4 092143Z 00009KT 09/M06 A3032 RMK A01 T00931063  RH  033%=      5-min Rain = 0
KPD4 092144Z 36008KT 09/M06 A3032 RMK A01 T00931064  RH  033%=      5-min Rain = 0
KPD4 092145Z 36007KT 09/M06 A3032 RMK A01 T00931063  RH  033%=      5-min Rain = 0
KPD4 092146Z 00006KT 09/M06 A3032 RMK A01 T00931063  RH  033%=      5-min Rain = 0
KPD4 092147Z 35007KT 09/M06 A3032 RMK A01 T00931064  RH  032%=      5-min Rain = 0
KPD4 092148Z 00007KT 09/M06 A3032 RMK A01 T00931064  RH  032%=      5-min Rain = 0
KPD4 092149Z 01005KT 09/M06 A3032 RMK A01 T00931064  RH  032%=      5-min Rain = 0
KPD4 092150Z 02006KT 09/M06 A3032 RMK A01 T00931064  RH  032%=      5-min Rain = 0
KPD4 092151Z 03007KT 09/M06 A3032 RMK A01 T00941064  RH  032%=      5-min Rain = 0
KPD4 092152Z 02008KT 10/M06 A3032 RMK A01 T00961064  RH  032%=      5-min Rain = 0
KPD4 092153Z 02007KT 10/M07 A3032 RMK A01 T00951066  RH  032%=      5-min Rain = 0
KPD4 092154Z 00005KT 09/M07 A3032 RMK A01 T00941066  RH  032%=      5-min Rain = 0
KPD4 092155Z 01007KT 09/M07 A3032 RMK A01 T00931066  RH  032%=      5-min Rain = 0
KPD4 092156Z 02008KT 09/M07 A3032 RMK A01 T00931065  RH  032%=      5-min Rain = 0
KPD4 092157Z 02007KT 09/M07 A3032 RMK A01 T00941065  RH  032%=      5-min Rain = 0
KPD4 092158Z 01006KT 09/M07 A3032 RMK A01 T00941065  RH  032%=      5-min Rain = 0
KPD4 092159Z 01004KT 10/M06 A3032 RMK A01 T00951064  RH  032%=      5-min Rain = 0
KPD4 092200Z 02005KT 10/M07 A3032 RMK A01 T00951065  RH  032%=      5-min Rain = 0
KPD4 092201Z 01008KT 10/M07 A3032 RMK A01 T00951066  RH  032%=      5-min Rain = 0
KPD4 092202Z 01009KT 10/M07 A3032 RMK A01 T00951065  RH  032%=      5-min Rain = 0
KPD4 092203Z 00007KT 09/M07 A3032 RMK A01 T00941067  RH  032%=      5-min Rain = 0
KPD4 092204Z 00005KT 09/M07 A3032 RMK A01 T00921068  RH  031%=      5-min Rain = 0
KPD4 092205Z 01004KT 09/M07 A3032 RMK A01 T00921068  RH  032%=      5-min Rain = 0
KPD4 092206Z 04004KT 09/M07 A3032 RMK A01 T00921068  RH  032%=      5-min Rain = 0
KPD4 092207Z 02006KT 09/M07 A3032 RMK A01 T00931068  RH  032%=      5-min Rain = 0
KPD4 092208Z 02005KT 09/M07 A3032 RMK A01 T00931069  RH  031%=      5-min Rain = 0
KPD4 092209Z 02005KT 09/M07 A3032 RMK A01 T00931068  RH  031%=      5-min Rain = 0
KPD4 092210Z 01005KT 09/M07 A3032 RMK A01 T00941067  RH  031%=      5-min Rain = 0
KPD4 092211Z 00004KT 10/M07 A3032 RMK A01 T00951067  RH  031%=      5-min Rain = 0
KPD4 092212Z 35005KT 09/M07 A3032 RMK A01 T00941069  RH  031%=      5-min Rain = 0
KPD4 092213Z 01005KT 09/M07 A3032 RMK A01 T00941068  RH  031%=      5-min Rain = 0
KPD4 092214Z 01006KT 09/M07 A3032 RMK A01 T00941069  RH  031%=      5-min Rain = 0
KPD4 092215Z 00005KT 09/M07 A3032 RMK A01 T00941069  RH  031%=      5-min Rain = 0
KPD4 092216Z 36006KT 09/M07 A3032 RMK A01 T00941071  RH  030%=      5-min Rain = 0
KPD4 092217Z 00007KT 09/M07 A3032 RMK A01 T00941071  RH  031%=      5-min Rain = 0
KPD4 092218Z 00007KT 09/M07 A3032 RMK A01 T00941071  RH  031%=      5-min Rain = 0
KPD4 092219Z 35007KT 09/M07 A3032 RMK A01 T00931071  RH  031%=      5-min Rain = 0
KPD4 092220Z 35005KT 09/M07 A3032 RMK A01 T00931071  RH  031%=      5-min Rain = 0
KPD4 092221Z 35004KT 09/M07 A3032 RMK A01 T00931071  RH  031%=      5-min Rain = 0
KPD4 092222Z 36003KT 09/M07 A3032 RMK A01 T00921071  RH  031%=      5-min Rain = 0
KPD4 092223Z 36003KT 09/M07 A3032 RMK A01 T00911070  RH  031%=      5-min Rain = 0
KPD4 092224Z 01003KT 09/M07 A3032 RMK A01 T00911069  RH  032%=      5-min Rain = 0
KPD4 092225Z 01006KT 09/M07 A3032 RMK A01 T00901069  RH  032%=      5-min Rain = 0
KPD4 092226Z 02007KT 09/M07 A3032 RMK A01 T00881069  RH  032%=      5-min Rain = 0
KPD4 092227Z 02006KT 09/M07 A3032 RMK A01 T00861069  RH  032%=      5-min Rain = 0
KPD4 092228Z 02005KT 09/M07 A3032 RMK A01 T00851069  RH  033%=      5-min Rain = 0
KPD4 092229Z 01005KT 08/M07 A3032 RMK A01 T00841069  RH  033%=      5-min Rain = 0
KPD4 092230Z 00005KT 08/M07 A3032 RMK A01 T00831069  RH  033%=      5-min Rain = 0
KPD4 092231Z 36004KT 08/M07 A3032 RMK A01 T00831069  RH  033%=      5-min Rain = 0
KPD4 092232Z 00003KT 08/M07 A3032 RMK A01 T00821069  RH  034%=      5-min Rain = 0
KPD4 092233Z 00003KT 08/M07 A3032 RMK A01 T00811069  RH  034%=      5-min Rain = 0
KPD4 092234Z 00003KT 08/M07 A3032 RMK A01 T00801069  RH  034%=      5-min Rain = 0
KPD4 092235Z 00004KT 08/M07 A3032 RMK A01 T00791070  RH  034%=      5-min Rain = 0
KPD4 092236Z 00004KT 08/M07 A3032 RMK A01 T00781070  RH  034%=      5-min Rain = 0
KPD4 092237Z 36004KT 08/M07 A3032 RMK A01 T00771070  RH  035%=      5-min Rain = 0
KPD4 092238Z 35003KT 08/M07 A3032 RMK A01 T00761070  RH  035%=      5-min Rain = 0
KPD4 092239Z 35003KT 08/M07 A3032 RMK A01 T00751070  RH  035%=      5-min Rain = 0
KPD4 092240Z 35004KT 07/M07 A3032 RMK A01 T00741070  RH  035%=      5-min Rain = 0
KPD4 092241Z 35003KT 07/M07 A3032 RMK A01 T00731070  RH  035%=      5-min Rain = 0
KPD4 092242Z 00004KT 07/M07 A3032 RMK A01 T00721070  RH  036%=      5-min Rain = 0
KPD4 092243Z 00004KT 07/M07 A3032 RMK A01 T00711070  RH  036%=      5-min Rain = 0
KPD4 092244Z 00004KT 07/M07 A3032 RMK A01 T00711070  RH  036%=      5-min Rain = 0
KPD4 092245Z 36004KT 07/M07 A3032 RMK A01 T00711069  RH  036%=      5-min Rain = 0
KPD4 092246Z 01004KT 07/M07 A3032 RMK A01 T00711070  RH  036%=      5-min Rain = 0
KPD4 092247Z 01004KT 07/M07 A3032 RMK A01 T00711070  RH  036%=      5-min Rain = 0
KPD4 092248Z 01004KT 07/M07 A3032 RMK A01 T00701070  RH  036%=      5-min Rain = 0
KPD4 092249Z 00004KT 07/M07 A3032 RMK A01 T00711070  RH  036%=      5-min Rain = 0
KPD4 092250Z 01004KT 07/M07 A3032 RMK A01 T00701070  RH  036%=      5-min Rain = 0
KPD4 092251Z 00004KT 07/M07 A3032 RMK A01 T00691070  RH  036%=      5-min Rain = 0
KPD4 092252Z 00004KT 07/M07 A3032 RMK A01 T00701070  RH  036%=      5-min Rain = 0
KPD4 092253Z 00004KT 07/M07 A3032 RMK A01 T00701069  RH  036%=      5-min Rain = 0
KPD4 092254Z 00004KT 07/M07 A3032 RMK A01 T00701069  RH  036%=      5-min Rain = 0
KPD4 092255Z 36004KT 07/M07 A3032 RMK A01 T00701069  RH  036%=      5-min Rain = 0
KPD4 092256Z 00004KT 07/M07 A3032 RMK A01 T00701069  RH  036%=      5-min Rain = 0
KPD4 092257Z 35004KT 07/M07 A3032 RMK A01 T00691069  RH  036%=      5-min Rain = 0
KPD4 092258Z 35004KT 07/M07 A3032 RMK A01 T00691069  RH  037%=      5-min Rain = 0
KPD4 092259Z 35004KT 07/M07 A3032 RMK A01 T00681070  RH  037%=      5-min Rain = 0
KPD4 092300Z 35004KT 07/M07 A3032 RMK A01 T00671070  RH  037%=      5-min Rain = 0
KPD4 092301Z 35004KT 07/M07 A3032 RMK A01 T00651070  RH  037%=      5-min Rain = 0
KPD4 092302Z 35004KT 06/M07 A3032 RMK A01 T00631072  RH  037%=      5-min Rain = 0
KPD4 092303Z 35004KT 06/M07 A3032 RMK A01 T00621071  RH  038%=      5-min Rain = 0
KPD4 092304Z 34004KT 06/M07 A3032 RMK A01 T00621071  RH  038%=      5-min Rain = 0
KPD4 092305Z 35004KT 06/M07 A3032 RMK A01 T00601071  RH  038%=      5-min Rain = 0
KPD4 092306Z 35005KT 06/M07 A3032 RMK A01 T00591071  RH  039%=      5-min Rain = 0
KPD4 092307Z 35005KT 06/M07 A3032 RMK A01 T00591071  RH  039%=      5-min Rain = 0
KPD4 092308Z 35005KT 06/M07 A3032 RMK A01 T00591071  RH  039%=      5-min Rain = 0
KPD4 092309Z 35005KT 06/M07 A3032 RMK A01 T00591071  RH  039%=      5-min Rain = 0
KPD4 092310Z 36006KT 06/M07 A3032 RMK A01 T00591071  RH  039%=      5-min Rain = 0
KPD4 092311Z 00006KT 06/M07 A3032 RMK A01 T00591072  RH  039%=      5-min Rain = 0
KPD4 092312Z 00006KT 06/M07 A3032 RMK A01 T00601071  RH  038%=      5-min Rain = 0
KPD4 092313Z 35005KT 06/M07 A3032 RMK A01 T00601072  RH  038%=      5-min Rain = 0
KPD4 092314Z 35005KT 06/M07 A3032 RMK A01 T00601072  RH  038%=      5-min Rain = 0
KPD4 092315Z 35005KT 06/M07 A3033 RMK A01 T00591072  RH  038%=      5-min Rain = 0
KPD4 092316Z 35005KT 06/M07 A3033 RMK A01 T00581072  RH  039%=      5-min Rain = 0
KPD4 092317Z 35005KT 06/M07 A3033 RMK A01 T00571072  RH  039%=      5-min Rain = 0
KPD4 092318Z 35006KT 06/M07 A3033 RMK A01 T00571073  RH  039%=      5-min Rain = 0
KPD4 092319Z 35005KT 06/M07 A3032 RMK A01 T00561073  RH  039%=      5-min Rain = 0
KPD4 092320Z 35006KT 06/M07 A3032 RMK A01 T00551073  RH  039%=      5-min Rain = 0
KPD4 092321Z 35006KT 05/M07 A3032 RMK A01 T00541073  RH  039%=      5-min Rain = 0
KPD4 092322Z 35006KT 05/M07 A3032 RMK A01 T00531073  RH  040%=      5-min Rain = 0
KPD4 092323Z 35006KT 05/M07 A3032 RMK A01 T00521073  RH  040%=      5-min Rain = 0
KPD4 092324Z 35006KT 05/M07 A3032 RMK A01 T00511074  RH  040%=      5-min Rain = 0
KPD4 092325Z 00007KT 05/M07 A3032 RMK A01 T00501074  RH  040%=      5-min Rain = 0
KPD4 092326Z 00007KT 05/M07 A3032 RMK A01 T00501074  RH  040%=      5-min Rain = 0
KPD4 092327Z 00007KT 05/M08 A3032 RMK A01 T00491075  RH  040%=      5-min Rain = 0
KPD4 092328Z 00007KT 05/M07 A3032 RMK A01 T00491074  RH  041%=      5-min Rain = 0
KPD4 092329Z 00006KT 05/M07 A3032 RMK A01 T00491074  RH  041%=      5-min Rain = 0
KPD4 092330Z 00006KT 05/M07 A3032 RMK A01 T00491074  RH  041%=      5-min Rain = 0
KPD4 092331Z 00006KT 05/M07 A3032 RMK A01 T00491074  RH  041%=      5-min Rain = 0
KPD4 092332Z 00006KT 05/M07 A3032 RMK A01 T00481074  RH  041%=      5-min Rain = 0
KPD4 092333Z 00005KT 05/M07 A3032 RMK A01 T00481074  RH  041%=      5-min Rain = 0
KPD4 092334Z 00005KT 05/M07 A3032 RMK A01 T00481074  RH  041%=      5-min Rain = 0
KPD4 092335Z 00005KT 05/M07 A3032 RMK A01 T00491074  RH  041%=      5-min Rain = 0
KPD4 092336Z 36005KT 05/M07 A3032 RMK A01 T00491074  RH  041%=      5-min Rain = 0
KPD4 092337Z 35005KT 05/M07 A3032 RMK A01 T00491074  RH  041%=      5-min Rain = 0
KPD4 092338Z 35004KT 05/M07 A3032 RMK A01 T00481074  RH  041%=      5-min Rain = 0
KPD4 092339Z 35004KT 05/M08 A3032 RMK A01 T00481075  RH  041%=      5-min Rain = 0
KPD4 092340Z 35004KT 05/M08 A3032 RMK A01 T00471075  RH  041%=      5-min Rain = 0
KPD4 092341Z 35004KT 05/M08 A3032 RMK A01 T00451076  RH  041%=      5-min Rain = 0
KPD4 092342Z 35004KT 04/M08 A3032 RMK A01 T00431076  RH  042%=      5-min Rain = 0
KPD4 092343Z 35004KT 05/M07 A3032 RMK A01 T00451074  RH  042%=      5-min Rain = 0
KPD4 092344Z 35004KT 05/M07 A3032 RMK A01 T00501071  RH  041%=      5-min Rain = 0
KPD4 092345Z 35004KT 05/M07 A3033 RMK A01 T00521073  RH  040%=      5-min Rain = 0
KPD4 092346Z 34004KT 05/M08 A3033 RMK A01 T00461078  RH  040%=      5-min Rain = 0
KPD4 092347Z 34004KT 04/M08 A3033 RMK A01 T00421078  RH  041%=      5-min Rain = 0
KPD4 092348Z 34004KT 04/M08 A3033 RMK A01 T00371080  RH  042%=      5-min Rain = 0
KPD4 092349Z 34004KT 03/M08 A3033 RMK A01 T00341080  RH  043%=      5-min Rain = 0
KPD4 092350Z 34004KT 03/M08 A3033 RMK A01 T00311079  RH  044%=      5-min Rain = 0
KPD4 092351Z 33004KT 03/M08 A3033 RMK A01 T00311077  RH  045%=      5-min Rain = 0
KPD4 092352Z 33003KT 03/M08 A3033 RMK A01 T00331075  RH  045%=      5-min Rain = 0
KPD4 092353Z 34004KT 04/M07 A3033 RMK A01 T00361074  RH  044%=      5-min Rain = 0
KPD4 092354Z 34004KT 04/M07 A3033 RMK A01 T00391073  RH  044%=      5-min Rain = 0
KPD4 092355Z 34004KT 04/M08 A3033 RMK A01 T00401075  RH  043%=      5-min Rain = 0
KPD4 092356Z 34004KT 03/M08 A3033 RMK A01 T00331080  RH  043%=      5-min Rain = 0
KPD4 092357Z 34004KT 03/M08 A3033 RMK A01 T00291078  RH  045%=      5-min Rain = 0
KPD4 092358Z 34004KT 03/M08 A3033 RMK A01 T00281078  RH  046%=      5-min Rain = 0
KPD4 092359Z 35004KT 03/M08 A3033 RMK A01 T00281076  RH  046%=      5-min Rain = 0
KPD4 100000Z 35004KT 03/M07 A3033 RMK A01 T00321074  RH  046%=      5-min Rain = 0
KPD4 100001Z 34005KT 03/M08 A3033 RMK A01 T00341076  RH  044%=      5-min Rain = 0
KPD4 100002Z 35004KT 03/M08 A3033 RMK A01 T00301079  RH  045%=      5-min Rain = 0
KPD4 100003Z 36004KT 03/M08 A3033 RMK A01 T00281079  RH  045%=      5-min Rain = 0
KPD4 100004Z 35004KT 03/M08 A3033 RMK A01 T00281078  RH  046%=      5-min Rain = 0
KPD4 100005Z 35004KT 03/M08 A3033 RMK A01 T00281078  RH  046%=      5-min Rain = 0
KPD4 100006Z 35004KT 03/M08 A3033 RMK A01 T00281078  RH  046%=      5-min Rain = 0
KPD4 100007Z 35004KT 03/M08 A3033 RMK A01 T00301077  RH  045%=      5-min Rain = 0
KPD4 100008Z 35004KT 03/M08 A3033 RMK A01 T00301077  RH  045%=      5-min Rain = 0
KPD4 100009Z 34004KT 03/M08 A3033 RMK A01 T00281077  RH  046%=      5-min Rain = 0
KPD4 100010Z 34003KT 03/M08 A3033 RMK A01 T00261076  RH  047%=      5-min Rain = 0
KPD4 100011Z 34003KT 03/M08 A3033 RMK A01 T00251075  RH  048%=      5-min Rain = 0
KPD4 100012Z 34003KT 03/M07 A3033 RMK A01 T00261074  RH  048%=      5-min Rain = 0
KPD4 100013Z 34003KT 03/M07 A3033 RMK A01 T00261073  RH  048%=      5-min Rain = 0
KPD4 100014Z 34003KT 03/M07 A3033 RMK A01 T00251071  RH  049%=      5-min Rain = 0
KPD4 100015Z 34003KT 03/M07 A3033 RMK A01 T00271069  RH  049%=      5-min Rain = 0
KPD4 100016Z 33003KT 03/M07 A3033 RMK A01 T00251071  RH  049%=      5-min Rain = 0
KPD4 100017Z 33003KT 02/M07 A3033 RMK A01 T00241070  RH  050%=      5-min Rain = 0
KPD4 100018Z 33003KT 03/M07 A3033 RMK A01 T00281068  RH  049%=      5-min Rain = 0
KPD4 100019Z 33003KT 03/M07 A3033 RMK A01 T00311069  RH  048%=      5-min Rain = 0
KPD4 100020Z 33003KT 03/M07 A3033 RMK A01 T00281072  RH  048%=      5-min Rain = 0
KPD4 100021Z 33003KT 03/M07 A3033 RMK A01 T00271072  RH  048%=      5-min Rain = 0
KPD4 100022Z 33003KT 03/M07 A3033 RMK A01 T00261073  RH  048%=      5-min Rain = 0
KPD4 100023Z 33003KT 02/M08 A3033 RMK A01 T00231076  RH  048%=      5-min Rain = 0
KPD4 100024Z 33003KT 02/M08 A3033 RMK A01 T00201077  RH  049%=      5-min Rain = 0
KPD4 100025Z 33003KT 02/M08 A3033 RMK A01 T00171076  RH  050%=      5-min Rain = 0
KPD4 100026Z 33004KT 02/M08 A3033 RMK A01 T00171075  RH  051%=      5-min Rain = 0
KPD4 100027Z 33003KT 02/M07 A3033 RMK A01 T00171074  RH  051%=      5-min Rain = 0
KPD4 100028Z 33003KT 02/M08 A3033 RMK A01 T00161075  RH  051%=      5-min Rain = 0
KPD4 100029Z 33003KT 02/M07 A3033 RMK A01 T00161074  RH  051%=      5-min Rain = 0
KPD4 100030Z 33003KT 02/M08 A3033 RMK A01 T00161075  RH  051%=      5-min Rain = 0
KPD4 100031Z 33003KT 02/M08 A3033 RMK A01 T00161075  RH  051%=      5-min Rain = 0
KPD4 100032Z 32003KT 02/M08 A3033 RMK A01 T00151076  RH  051%=      5-min Rain = 0
KPD4 100033Z 32003KT 01/M08 A3033 RMK A01 T00141076  RH  051%=      5-min Rain = 0
KPD4 100034Z 32003KT 02/M08 A3033 RMK A01 T00151075  RH  051%=      5-min Rain = 0
KPD4 100035Z 32003KT 02/M08 A3033 RMK A01 T00151076  RH  051%=      5-min Rain = 0
KPD4 100036Z 32003KT 02/M08 A3033 RMK A01 T00161075  RH  051%=      5-min Rain = 0
KPD4 100037Z 31003KT 02/M08 A3033 RMK A01 T00161077  RH  050%=      5-min Rain = 0
KPD4 100038Z 31003KT 02/M08 A3033 RMK A01 T00151078  RH  050%=      5-min Rain = 0
KPD4 100039Z 31003KT 01/M08 A3033 RMK A01 T00141079  RH  050%=      5-min Rain = 0
KPD4 100040Z 31003KT 01/M08 A3033 RMK A01 T00131079  RH  050%=      5-min Rain = 0
KPD4 100041Z 30003KT 01/M08 A3033 RMK A01 T00131080  RH  050%=      5-min Rain = 0
KPD4 100042Z 30003KT 01/M08 A3033 RMK A01 T00131080  RH  050%=      5-min Rain = 0
KPD4 100043Z 30003KT 01/M08 A3033 RMK A01 T00111081  RH  050%=      5-min Rain = 0
KPD4 100044Z 30003KT 01/M08 A3033 RMK A01 T00111081  RH  050%=      5-min Rain = 0
KPD4 100045Z 29004KT 01/M08 A3033 RMK A01 T00101081  RH  051%=      5-min Rain = 0
KPD4 100046Z 29004KT 01/M08 A3033 RMK A01 T00101081  RH  051%=      5-min Rain = 0
KPD4 100047Z 29004KT 01/M08 A3033 RMK A01 T00091081  RH  051%=      5-min Rain = 0
KPD4 100048Z 29004KT 01/M08 A3033 RMK A01 T00091081  RH  051%=      5-min Rain = 0
KPD4 100049Z 29004KT 01/M08 A3033 RMK A01 T00101081  RH  051%=      5-min Rain = 0
KPD4 100050Z 29004KT 01/M08 A3033 RMK A01 T00111080  RH  050%=      5-min Rain = 0
KPD4 100051Z 29003KT 01/M08 A3033 RMK A01 T00141079  RH  050%=      5-min Rain = 0
KPD4 100052Z 29003KT 02/M08 A3033 RMK A01 T00151080  RH  049%=      5-min Rain = 0
KPD4 100053Z 29003KT 02/M08 A3033 RMK A01 T00151081  RH  049%=      5-min Rain = 0
KPD4 100054Z 29003KT 01/M08 A3033 RMK A01 T00141081  RH  049%=      5-min Rain = 0
KPD4 100055Z 29004KT 01/M08 A3033 RMK A01 T00131081  RH  049%=      5-min Rain = 0
KPD4 100056Z 29003KT 01/M08 A3033 RMK A01 T00131081  RH  049%=      5-min Rain = 0
KPD4 100057Z 29003KT 01/M08 A3033 RMK A01 T00131081  RH  049%=      5-min Rain = 0
KPD4 100058Z 29003KT 01/M08 A3033 RMK A01 T00131081  RH  049%=      5-min Rain = 0
KPD4 100059Z 29004KT 01/M08 A3034 RMK A01 T00131082  RH  049%=      5-min Rain = 0
KPD4 100100Z 29004KT 01/M08 A3034 RMK A01 T00131082  RH  049%=      5-min Rain = 0
KPD4 100101Z 28004KT 01/M08 A3034 RMK A01 T00131082  RH  049%=      5-min Rain = 0
KPD4 100102Z 28004KT 01/M08 A3033 RMK A01 T00121082  RH  050%=      5-min Rain = 0
KPD4 100103Z 28003KT 01/M08 A3033 RMK A01 T00121082  RH  050%=      5-min Rain = 0
KPD4 100104Z 28003KT 01/M08 A3033 RMK A01 T00121082  RH  050%=      5-min Rain = 0
KPD4 100105Z 28003KT 01/M08 A3033 RMK A01 T00101083  RH  050%=      5-min Rain = 0
KPD4 100106Z 28003KT 01/M08 A3033 RMK A01 T00091082  RH  050%=      5-min Rain = 0
KPD4 100107Z 28003KT 01/M08 A3033 RMK A01 T00081082  RH  051%=      5-min Rain = 0
KPD4 100108Z 27004KT 01/M08 A3033 RMK A01 T00061083  RH  051%=      5-min Rain = 0
KPD4 100109Z 26004KT 00/M08 A3033 RMK A01 T00031084  RH  052%=      5-min Rain = 0
KPD4 100110Z 26004KT 00/M08 A3033 RMK A01 T00011083  RH  053%=      5-min Rain = 0
KPD4 100111Z 24003KT 00/M08 A3033 RMK A01 T00011082  RH  053%=      5-min Rain = 0
KPD4 100112Z 23003KT 00/M08 A3033 RMK A01 T00021082  RH  053%=      5-min Rain = 0
KPD4 100113Z 22003KT 00/M08 A3033 RMK A01 T00041081  RH  053%=      5-min Rain = 0
KPD4 100114Z 21003KT 01/M08 A3033 RMK A01 T00051081  RH  053%=      5-min Rain = 0
KPD4 100115Z 21003KT 01/M08 A3033 RMK A01 T00071080  RH  052%=      5-min Rain = 0
KPD4 100116Z 20002KT 01/M08 A3033 RMK A01 T00091079  RH  052%=      5-min Rain = 0
KPD4 100117Z 19002KT 01/M08 A3033 RMK A01 T00121079  RH  051%=      5-min Rain = 0
KPD4 100118Z 20003KT 02/M08 A3033 RMK A01 T00151078  RH  050%=      5-min Rain = 0
KPD4 100119Z 20003KT 02/M08 A3033 RMK A01 T00171079  RH  049%=      5-min Rain = 0
KPD4 100120Z 22003KT 02/M08 A3033 RMK A01 T00181079  RH  049%=      5-min Rain = 0
KPD4 100121Z 22003KT 02/M08 A3033 RMK A01 T00191079  RH  048%=      5-min Rain = 0
KPD4 100122Z 23003KT 02/M08 A3033 RMK A01 T00201079  RH  048%=      5-min Rain = 0
KPD4 100123Z 22003KT 02/M08 A3033 RMK A01 T00211079  RH  048%=      5-min Rain = 0
KPD4 100124Z 22003KT 02/M08 A3033 RMK A01 T00201080  RH  047%=      5-min Rain = 0
KPD4 100125Z 21004KT 02/M08 A3033 RMK A01 T00191080  RH  048%=      5-min Rain = 0
KPD4 100126Z 22004KT 02/M08 A3033 RMK A01 T00171081  RH  048%=      5-min Rain = 0
KPD4 100127Z 22004KT 02/M08 A3033 RMK A01 T00161081  RH  049%=      5-min Rain = 0
KPD4 100128Z 23005KT 02/M08 A3033 RMK A01 T00151081  RH  049%=      5-min Rain = 0
KPD4 100129Z 23005KT 01/M08 A3033 RMK A01 T00131082  RH  049%=      5-min Rain = 0
KPD4 100130Z 23005KT 01/M08 A3033 RMK A01 T00131081  RH  050%=      5-min Rain = 0
KPD4 100131Z 23004KT 01/M08 A3033 RMK A01 T00141079  RH  050%=      5-min Rain = 0
KPD4 100132Z 23004KT 02/M08 A3033 RMK A01 T00161078  RH  049%=      5-min Rain = 0
KPD4 100133Z 23004KT 02/M08 A3033 RMK A01 T00171079  RH  049%=      5-min Rain = 0
KPD4 100134Z 22004KT 02/M08 A3033 RMK A01 T00161079  RH  049%=      5-min Rain = 0
KPD4 100135Z 22004KT 02/M08 A3033 RMK A01 T00151079  RH  050%=      5-min Rain = 0
KPD4 100136Z 22004KT 01/M08 A3033 RMK A01 T00141079  RH  050%=      5-min Rain = 0
KPD4 100137Z 22004KT 01/M08 A3033 RMK A01 T00141079  RH  050%=      5-min Rain = 0
KPD4 100138Z 22004KT 02/M08 A3033 RMK A01 T00151078  RH  050%=      5-min Rain = 0
KPD4 100139Z 22004KT 02/M08 A3034 RMK A01 T00171078  RH  049%=      5-min Rain = 0
KPD4 100140Z 23004KT 02/M08 A3034 RMK A01 T00171079  RH  049%=      5-min Rain = 0
KPD4 100141Z 23004KT 02/M08 A3034 RMK A01 T00171079  RH  049%=      5-min Rain = 0
KPD4 100142Z 22004KT 02/M08 A3034 RMK A01 T00151080  RH  049%=      5-min Rain = 0
KPD4 100143Z 22004KT 01/M08 A3034 RMK A01 T00141080  RH  050%=      5-min Rain = 0
KPD4 100144Z 22004KT 01/M08 A3034 RMK A01 T00141079  RH  050%=      5-min Rain = 0
KPD4 100145Z 23004KT 01/M08 A3034 RMK A01 T00141079  RH  050%=      5-min Rain = 0
KPD4 100146Z 23004KT 01/M08 A3034 RMK A01 T00141079  RH  050%=      5-min Rain = 0
KPD4 100147Z 24005KT 02/M08 A3034 RMK A01 T00151079  RH  050%=      5-min Rain = 0
KPD4 100148Z 24004KT 02/M08 A3034 RMK A01 T00161078  RH  050%=      5-min Rain = 0
KPD4 100149Z 24004KT 02/M08 A3034 RMK A01 T00161078  RH  050%=      5-min Rain = 0
KPD4 100150Z 24005KT 02/M08 A3034 RMK A01 T00161078  RH  050%=      5-min Rain = 0
KPD4 100151Z 24006KT 02/M08 A3034 RMK A01 T00161078  RH  050%=      5-min Rain = 0
KPD4 100152Z 24007KT 02/M08 A3034 RMK A01 T00151078  RH  050%=      5-min Rain = 0
KPD4 100153Z 24007KT 01/M08 A3034 RMK A01 T00131079  RH  050%=      5-min Rain = 0
KPD4 100154Z 24008KT 01/M08 A3034 RMK A01 T00091079  RH  052%=      5-min Rain = 0
KPD4 100155Z 24008KT 01/M08 A3034 RMK A01 T00061078  RH  053%=      5-min Rain = 0
KPD4 100156Z 24008KT 00/M08 A3034 RMK A01 T00031077  RH  055%=      5-min Rain = 0
KPD4 100157Z 24008KT 00/M08 A3034 RMK A01 T00011077  RH  056%=      5-min Rain = 0
KPD4 100158Z 25009KT M00/M08 A3034 RMK A01 T10011076  RH  057%=      5-min Rain = 0
KPD4 100159Z 24009KT M00/M08 A3034 RMK A01 T10021076  RH  058%=      5-min Rain = 0
KPD4 100200Z 24009KT M00/M08 A3034 RMK A01 T10041076  RH  058%=      5-min Rain = 0
KPD4 100201Z 24009KT M01/M08 A3034 RMK A01 T10051077  RH  058%=      5-min Rain = 0
KPD4 100202Z 24009KT M01/M08 A3034 RMK A01 T10061078  RH  058%=      5-min Rain = 0
KPD4 100203Z 25009KT M01/M08 A3034 RMK A01 T10061078  RH  058%=      5-min Rain = 0
KPD4 100204Z 25010KT M01/M08 A3034 RMK A01 T10061078  RH  058%=      5-min Rain = 0
KPD4 100205Z 25010KT M01/M08 A3034 RMK A01 T10061078  RH  059%=      5-min Rain = 0
KPD4 100206Z 25010KT M01/M08 A3034 RMK A01 T10071078  RH  059%=      5-min Rain = 0
KPD4 100207Z 25010KT M01/M08 A3034 RMK A01 T10071078  RH  059%=      5-min Rain = 0
KPD4 100208Z 25009KT M01/M08 A3034 RMK A01 T10091079  RH  059%=      5-min Rain = 0
KPD4 100209Z 25010KT M01/M08 A3034 RMK A01 T10111080  RH  060%=      5-min Rain = 0
KPD4 100210Z 25010KT M01/M08 A3034 RMK A01 T10131080  RH  060%=      5-min Rain = 0
KPD4 100211Z 25011KT M02/M08 A3034 RMK A01 T10151081  RH  061%=      5-min Rain = 0
KPD4 100212Z 25011KT M02/M08 A3034 RMK A01 T10161081  RH  061%=      5-min Rain = 0
KPD4 100213Z 25011KT M02/M08 A3034 RMK A01 T10171081  RH  062%=      5-min Rain = 0
KPD4 100214Z 25010KT M02/M08 A3034 RMK A01 T10181081  RH  062%=      5-min Rain = 0
KPD4 100215Z 25010KT M02/M08 A3034 RMK A01 T10171080  RH  062%=      5-min Rain = 0
KPD4 100216Z 25010KT M02/M08 A3034 RMK A01 T10161080  RH  062%=      5-min Rain = 0
KPD4 100217Z 25010KT M02/M08 A3034 RMK A01 T10151080  RH  061%=      5-min Rain = 0
KPD4 100218Z 25011KT M01/M08 A3034 RMK A01 T10141081  RH  061%=      5-min Rain = 0
KPD4 100219Z 25011KT M01/M08 A3034 RMK A01 T10131081  RH  060%=      5-min Rain = 0
KPD4 100220Z 25011KT M01/M08 A3034 RMK A01 T10121080  RH  060%=      5-min Rain = 0
KPD4 100221Z 25010KT M01/M08 A3034 RMK A01 T10111080  RH  059%=      5-min Rain = 0
KPD4 100222Z 25011KT M01/M08 A3034 RMK A01 T10101080  RH  059%=      5-min Rain = 0
KPD4 100223Z 25011KT M01/M08 A3034 RMK A01 T10101080  RH  059%=      5-min Rain = 0
KPD4 100224Z 25010KT M01/M08 A3034 RMK A01 T10091080  RH  059%=      5-min Rain = 0
KPD4 100225Z 25009KT M01/M08 A3034 RMK A01 T10081079  RH  059%=      5-min Rain = 0
KPD4 100226Z 25008KT M01/M08 A3034 RMK A01 T10081079  RH  059%=      5-min Rain = 0
KPD4 100227Z 25007KT M01/M08 A3034 RMK A01 T10081079  RH  059%=      5-min Rain = 0
KPD4 100228Z 25007KT M01/M08 A3034 RMK A01 T10091079  RH  059%=      5-min Rain = 0
KPD4 100229Z 25006KT M01/M08 A3034 RMK A01 T10101079  RH  059%=      5-min Rain = 0
KPD4 100230Z 25006KT M01/M08 A3034 RMK A01 T10111079  RH  060%=      5-min Rain = 0
KPD4 100231Z 24006KT M01/M08 A3034 RMK A01 T10111079  RH  060%=      5-min Rain = 0
KPD4 100232Z 24005KT M01/M08 A3034 RMK A01 T10111079  RH  060%=      5-min Rain = 0
KPD4 100233Z 24005KT M01/M08 A3034 RMK A01 T10121080  RH  060%=      5-min Rain = 0
KPD4 100234Z 24005KT M01/M08 A3034 RMK A01 T10131080  RH  060%=      5-min Rain = 0
KPD4 100235Z 24005KT M01/M08 A3034 RMK A01 T10131080  RH  060%=      5-min Rain = 0
KPD4 100236Z 24005KT M01/M08 A3034 RMK A01 T10141081  RH  061%=      5-min Rain = 0
KPD4 100237Z 24005KT M02/M08 A3034 RMK A01 T10161081  RH  061%=      5-min Rain = 0
KPD4 100238Z 24005KT M02/M08 A3034 RMK A01 T10161081  RH  061%=      5-min Rain = 0
KPD4 100239Z 23005KT M02/M08 A3034 RMK A01 T10181082  RH  062%=      5-min Rain = 0
KPD4 100240Z 24005KT M02/M08 A3034 RMK A01 T10191082  RH  062%=      5-min Rain = 0
KPD4 100241Z 24006KT M02/M08 A3034 RMK A01 T10201082  RH  063%=      5-min Rain = 0
KPD4 100242Z 24005KT M02/M08 A3034 RMK A01 T10201082  RH  063%=      5-min Rain = 0
KPD4 100243Z 24005KT M02/M08 A3034 RMK A01 T10211081  RH  063%=      5-min Rain = 0
KPD4 100244Z 24006KT M02/M08 A3034 RMK A01 T10211081  RH  064%=      5-min Rain = 0
KPD4 100245Z 24005KT M02/M08 A3034 RMK A01 T10211080  RH  064%=      5-min Rain = 0
KPD4 100246Z 24005KT M02/M08 A3034 RMK A01 T10211080  RH  064%=      5-min Rain = 0
KPD4 100247Z 24005KT M02/M08 A3034 RMK A01 T10211080  RH  064%=      5-min Rain = 0
KPD4 100248Z 24005KT M02/M08 A3034 RMK A01 T10201079  RH  064%=      5-min Rain = 0
KPD4 100249Z 24005KT M02/M08 A3034 RMK A01 T10201079  RH  064%=      5-min Rain = 0
KPD4 100250Z 24005KT M02/M08 A3034 RMK A01 T10211079  RH  064%=      5-min Rain = 0
KPD4 100251Z 24006KT M02/M08 A3034 RMK A01 T10211080  RH  064%=      5-min Rain = 0
KPD4 100252Z 24006KT M02/M08 A3034 RMK A01 T10221079  RH  065%=      5-min Rain = 0
KPD4 100253Z 24005KT M02/M08 A3034 RMK A01 T10221079  RH  065%=      5-min Rain = 0
KPD4 100254Z 24006KT M02/M08 A3034 RMK A01 T10231079  RH  065%=      5-min Rain = 0
KPD4 100255Z 24005KT M02/M08 A3034 RMK A01 T10231078  RH  066%=      5-min Rain = 0
KPD4 100256Z 24005KT M02/M08 A3034 RMK A01 T10231079  RH  066%=      5-min Rain = 0
KPD4 100257Z 24005KT M02/M08 A3034 RMK A01 T10231078  RH  066%=      5-min Rain = 0
KPD4 100258Z 24005KT M02/M08 A3034 RMK A01 T10241078  RH  066%=      5-min Rain = 0
KPD4 100259Z 24006KT M02/M08 A3034 RMK A01 T10231078  RH  066%=      5-min Rain = 0
KPD4 100300Z 24006KT M02/M08 A3034 RMK A01 T10231078  RH  066%=      5-min Rain = 0
KPD4 100301Z 24005KT M02/M08 A3034 RMK A01 T10241079  RH  066%=      5-min Rain = 0
KPD4 100302Z 24005KT M03/M08 A3034 RMK A01 T10251079  RH  066%=      5-min Rain = 0
KPD4 100303Z 25005KT M03/M08 A3034 RMK A01 T10251079  RH  066%=      5-min Rain = 0
KPD4 100304Z 24006KT M03/M08 A3034 RMK A01 T10261080  RH  066%=      5-min Rain = 0
KPD4 100305Z 25006KT M03/M08 A3034 RMK A01 T10271080  RH  067%=      5-min Rain = 0
KPD4 100306Z 25006KT M03/M08 A3034 RMK A01 T10261079  RH  067%=      5-min Rain = 0
KPD4 100307Z 25007KT M03/M08 A3034 RMK A01 T10261079  RH  067%=      5-min Rain = 0
KPD4 100308Z 25007KT M03/M08 A3034 RMK A01 T10261080  RH  066%=      5-min Rain = 0
KPD4 100309Z 25007KT M03/M08 A3034 RMK A01 T10261080  RH  066%=      5-min Rain = 0
KPD4 100310Z 24007KT M03/M08 A3034 RMK A01 T10261081  RH  066%=      5-min Rain = 0
KPD4 100311Z 24007KT M03/M08 A3034 RMK A01 T10261081  RH  066%=      5-min Rain = 0
KPD4 100312Z 24007KT M03/M08 A3034 RMK A01 T10261081  RH  066%=      5-min Rain = 0
KPD4 100313Z 25006KT M03/M08 A3034 RMK A01 T10261081  RH  066%=      5-min Rain = 0
KPD4 100314Z 25006KT M03/M08 A3034 RMK A01 T10261081  RH  066%=      5-min Rain = 0
KPD4 100315Z 25007KT M03/M08 A3034 RMK A01 T10271081  RH  066%=      5-min Rain = 0
KPD4 100316Z 25007KT M03/M08 A3034 RMK A01 T10271081  RH  066%=      5-min Rain = 0
KPD4 100317Z 25006KT M03/M08 A3034 RMK A01 T10271081  RH  066%=      5-min Rain = 0
KPD4 100318Z 25006KT M03/M08 A3034 RMK A01 T10271081  RH  066%=      5-min Rain = 0
KPD4 100319Z 25007KT M03/M08 A3034 RMK A01 T10271081  RH  066%=      5-min Rain = 0
KPD4 100320Z 25007KT M03/M08 A3034 RMK A01 T10281081  RH  067%=      5-min Rain = 0
KPD4 100321Z 25007KT M03/M08 A3034 RMK A01 T10281082  RH  067%=      5-min Rain = 0
KPD4 100322Z 25007KT M03/M08 A3034 RMK A01 T10281082  RH  067%=      5-min Rain = 0
KPD4 100323Z 25006KT M03/M08 A3034 RMK A01 T10291082  RH  067%=      5-min Rain = 0
KPD4 100324Z 24005KT M03/M08 A3034 RMK A01 T10301082  RH  067%=      5-min Rain = 0
KPD4 100325Z 24005KT M03/M08 A3034 RMK A01 T10301082  RH  067%=      5-min Rain = 0
KPD4 100326Z 24005KT M03/M08 A3034 RMK A01 T10301082  RH  068%=      5-min Rain = 0
KPD4 100327Z 24005KT M03/M08 A3034 RMK A01 T10301081  RH  067%=      5-min Rain = 0
KPD4 100328Z 24005KT M03/M08 A3034 RMK A01 T10291081  RH  067%=      5-min Rain = 0
KPD4 100329Z 24006KT M03/M08 A3034 RMK A01 T10291081  RH  067%=      5-min Rain = 0
KPD4 100330Z 24006KT M03/M08 A3034 RMK A01 T10291081  RH  067%=      5-min Rain = 0
KPD4 100331Z 24005KT M03/M08 A3034 RMK A01 T10281081  RH  067%=      5-min Rain = 0
KPD4 100332Z 23005KT M03/M08 A3034 RMK A01 T10281081  RH  067%=      5-min Rain = 0
KPD4 100333Z 23005KT M03/M08 A3034 RMK A01 T10261080  RH  066%=      5-min Rain = 0
KPD4 100334Z 23005KT M03/M08 A3034 RMK A01 T10271082  RH  066%=      5-min Rain = 0
KPD4 100335Z 23005KT M03/M08 A3034 RMK A01 T10281082  RH  066%=      5-min Rain = 0
KPD4 100336Z 23006KT M03/M08 A3033 RMK A01 T10281082  RH  067%=      5-min Rain = 0
KPD4 100337Z 23006KT M03/M08 A3033 RMK A01 T10281082  RH  067%=      5-min Rain = 0
KPD4 100338Z 23006KT M03/M08 A3033 RMK A01 T10291082  RH  067%=      5-min Rain = 0
KPD4 100339Z 23006KT M03/M08 A3033 RMK A01 T10281081  RH  067%=      5-min Rain = 0
KPD4 100340Z 23006KT M03/M08 A3033 RMK A01 T10291082  RH  067%=      5-min Rain = 0
KPD4 100341Z 23007KT M03/M08 A3033 RMK A01 T10291081  RH  067%=      5-min Rain = 0
KPD4 100342Z 23007KT M03/M08 A3033 RMK A01 T10281080  RH  067%=      5-min Rain = 0
KPD4 100343Z 23008KT M03/M08 A3033 RMK A01 T10281080  RH  067%=      5-min Rain = 0
KPD4 100344Z 23008KT M03/M08 A3033 RMK A01 T10271080  RH  067%=      5-min Rain = 0
KPD4 100345Z 23008KT M03/M08 A3033 RMK A01 T10261079  RH  067%=      5-min Rain = 0
KPD4 100346Z 23008KT M03/M08 A3033 RMK A01 T10251079  RH  067%=      5-min Rain = 0
KPD4 100347Z 23007KT M03/M08 A3033 RMK A01 T10251079  RH  066%=      5-min Rain = 0
KPD4 100348Z 23007KT M02/M08 A3033 RMK A01 T10241079  RH  066%=      5-min Rain = 0
KPD4 100349Z 23007KT M02/M08 A3033 RMK A01 T10231079  RH  066%=      5-min Rain = 0
KPD4 100350Z 23007KT M02/M08 A3033 RMK A01 T10231079  RH  065%=      5-min Rain = 0
KPD4 100351Z 23007KT M02/M08 A3033 RMK A01 T10231079  RH  065%=      5-min Rain = 0
KPD4 100352Z 23007KT M02/M08 A3033 RMK A01 T10231079  RH  065%=      5-min Rain = 0
KPD4 100353Z 22006KT M02/M08 A3033 RMK A01 T10211079  RH  065%=      5-min Rain = 0
KPD4 100354Z 23006KT M02/M08 A3033 RMK A01 T10201079  RH  064%=      5-min Rain = 0
KPD4 100355Z 23006KT M02/M08 A3033 RMK A01 T10201079  RH  064%=      5-min Rain = 0
KPD4 100356Z 23006KT M02/M08 A3033 RMK A01 T10201079  RH  064%=      5-min Rain = 0
KPD4 100357Z 23007KT M02/M08 A3033 RMK A01 T10201079  RH  064%=      5-min Rain = 0
KPD4 100358Z 23006KT M02/M08 A3033 RMK A01 T10201080  RH  064%=      5-min Rain = 0
KPD4 100359Z 23006KT M02/M08 A3033 RMK A01 T10201080  RH  064%=      5-min Rain = 0
KPD4 100400Z 23006KT M02/M08 A3033 RMK A01 T10211080  RH  064%=      5-min Rain = 0
KPD4 100401Z 23006KT M02/M08 A3033 RMK A01 T10221081  RH  064%=      5-min Rain = 0
KPD4 100402Z 23006KT M02/M08 A3033 RMK A01 T10231081  RH  064%=      5-min Rain = 0
KPD4 100403Z 23006KT M02/M08 A3033 RMK A01 T10241081  RH  065%=      5-min Rain = 0
KPD4 100404Z 23006KT M03/M08 A3033 RMK A01 T10251081  RH  065%=      5-min Rain = 0
KPD4 100405Z 23007KT M03/M08 A3033 RMK A01 T10251081  RH  065%=      5-min Rain = 0
KPD4 100406Z 23007KT M03/M08 A3033 RMK A01 T10251081  RH  066%=      5-min Rain = 0
KPD4 100407Z 23007KT M03/M08 A3033 RMK A01 T10251080  RH  066%=      5-min Rain = 0
KPD4 100408Z 23006KT M02/M08 A3033 RMK A01 T10241080  RH  066%=      5-min Rain = 0
KPD4 100409Z 23007KT M03/M08 A3033 RMK A01 T10251081  RH  066%=      5-min Rain = 0
KPD4 100410Z 23007KT M03/M08 A3033 RMK A01 T10251081  RH  065%=      5-min Rain = 0
KPD4 100411Z 23006KT M03/M08 A3033 RMK A01 T10261081  RH  066%=      5-min Rain = 0
KPD4 100412Z 23006KT M03/M08 A3033 RMK A01 T10261081  RH  066%=      5-min Rain = 0
KPD4 100413Z 23006KT M03/M08 A3033 RMK A01 T10261081  RH  066%=      5-min Rain = 0
KPD4 100414Z 23006KT M03/M08 A3033 RMK A01 T10261081  RH  066%=      5-min Rain = 0
KPD4 100415Z 23006KT M03/M08 A3033 RMK A01 T10261081  RH  066%=      5-min Rain = 0
KPD4 100416Z 23006KT M03/M08 A3033 RMK A01 T10261081  RH  066%=      5-min Rain = 0
KPD4 100417Z 24006KT M03/M08 A3033 RMK A01 T10251081  RH  066%=      5-min Rain = 0
KPD4 100418Z 24006KT M03/M08 A3033 RMK A01 T10251081  RH  065%=      5-min Rain = 0
KPD4 100419Z 24006KT M03/M08 A3033 RMK A01 T10261082  RH  065%=      5-min Rain = 0
KPD4 100420Z 24005KT M03/M08 A3033 RMK A01 T10271083  RH  066%=      5-min Rain = 0
KPD4 100421Z 24005KT M03/M08 A3033 RMK A01 T10281083  RH  066%=      5-min Rain = 0
KPD4 100422Z 25006KT M03/M08 A3033 RMK A01 T10281083  RH  066%=      5-min Rain = 0
KPD4 100423Z 25006KT M03/M08 A3033 RMK A01 T10291084  RH  066%=      5-min Rain = 0
KPD4 100424Z 25006KT M03/M08 A3033 RMK A01 T10301084  RH  066%=      5-min Rain = 0
KPD4 100425Z 25006KT M03/M08 A3033 RMK A01 T10301084  RH  066%=      5-min Rain = 0
KPD4 100426Z 25007KT M03/M09 A3033 RMK A01 T10311085  RH  067%=      5-min Rain = 0
KPD4 100427Z 25007KT M03/M09 A3033 RMK A01 T10321085  RH  067%=      5-min Rain = 0
KPD4 100428Z 25007KT M03/M09 A3033 RMK A01 T10341086  RH  067%=      5-min Rain = 0
KPD4 100429Z 25007KT M04/M09 A3033 RMK A01 T10351087  RH  067%=      5-min Rain = 0
KPD4 100430Z 25007KT M04/M09 A3033 RMK A01 T10361087  RH  068%=      5-min Rain = 0
KPD4 100431Z 25008KT M04/M09 A3033 RMK A01 T10371087  RH  069%=      5-min Rain = 0
KPD4 100432Z 25008KT M04/M09 A3033 RMK A01 T10381086  RH  069%=      5-min Rain = 0
KPD4 100433Z 25008KT M04/M09 A3033 RMK A01 T10371085  RH  069%=      5-min Rain = 0
KPD4 100434Z 25009KT M04/M09 A3033 RMK A01 T10371085  RH  069%=      5-min Rain = 0
KPD4 100435Z 26009KT M04/M08 A3033 RMK A01 T10361084  RH  070%=      5-min Rain = 0
KPD4 100436Z 26009KT M04/M08 A3033 RMK A01 T10361084  RH  069%=      5-min Rain = 0
KPD4 100437Z 26010KT M04/M08 A3033 RMK A01 T10351083  RH  069%=      5-min Rain = 0
KPD4 100438Z 26010KT M03/M08 A3033 RMK A01 T10341083  RH  069%=      5-min Rain = 0
KPD4 100439Z 26010KT M03/M08 A3033 RMK A01 T10341083  RH  069%=      5-min Rain = 0
KPD4 100440Z 26010KT M03/M08 A3033 RMK A01 T10341084  RH  068%=      5-min Rain = 0
KPD4 100441Z 26009KT M03/M08 A3033 RMK A01 T10341084  RH  068%=      5-min Rain = 0
KPD4 100442Z 25009KT M03/M08 A3033 RMK A01 T10331083  RH  068%=      5-min Rain = 0
KPD4 100443Z 25008KT M03/M08 A3033 RMK A01 T10331083  RH  068%=      5-min Rain = 0
KPD4 100444Z 25008KT M03/M08 A3033 RMK A01 T10331084  RH  068%=      5-min Rain = 0
KPD4 100445Z 24007KT M03/M08 A3033 RMK A01 T10341084  RH  068%=      5-min Rain = 0
KPD4 100446Z 24006KT M04/M08 A3033 RMK A01 T10351084  RH  069%=      5-min Rain = 0
KPD4 100447Z 24007KT M04/M08 A3033 RMK A01 T10361084  RH  069%=      5-min Rain = 0
KPD4 100448Z 24006KT M04/M08 A3033 RMK A01 T10361084  RH  069%=      5-min Rain = 0
KPD4 100449Z 24007KT M04/M08 A3033 RMK A01 T10361084  RH  069%=      5-min Rain = 0
KPD4 100450Z 24006KT M04/M09 A3033 RMK A01 T10371085  RH  070%=      5-min Rain = 0
KPD4 100451Z 24007KT M04/M09 A3033 RMK A01 T10371085  RH  070%=      5-min Rain = 0
KPD4 100452Z 24006KT M04/M09 A3033 RMK A01 T10381085  RH  070%=      5-min Rain = 0
KPD4 100453Z 25007KT M04/M09 A3033 RMK A01 T10381085  RH  070%=      5-min Rain = 0
KPD4 100454Z 25007KT M04/M09 A3033 RMK A01 T10381085  RH  070%=      5-min Rain = 0
KPD4 100455Z 25008KT M04/M09 A3033 RMK A01 T10381085  RH  070%=      5-min Rain = 0
KPD4 100456Z 26008KT M04/M08 A3033 RMK A01 T10371084  RH  070%=      5-min Rain = 0
KPD4 100457Z 26008KT M04/M08 A3033 RMK A01 T10361084  RH  070%=      5-min Rain = 0
KPD4 100458Z 26009KT M04/M08 A3033 RMK A01 T10361084  RH  069%=      5-min Rain = 0
KPD4 100459Z 26009KT M04/M08 A3033 RMK A01 T10361084  RH  069%=      5-min Rain = 0
KPD4 100500Z 26010KT M04/M08 A3033 RMK A01 T10361084  RH  069%=      5-min Rain = 0
KPD4 100501Z 26010KT M04/M08 A3033 RMK A01 T10351084  RH  069%=      5-min Rain = 0
KPD4 100502Z 27011KT M04/M08 A3033 RMK A01 T10351084  RH  069%=      5-min Rain = 0
KPD4 100503Z 27012KT M04/M09 A3033 RMK A01 T10351085  RH  068%=      5-min Rain = 0
KPD4 100504Z 27012KT M04/M09 A3033 RMK A01 T10351085  RH  068%=      5-min Rain = 0
KPD4 100505Z 27012KT M03/M09 A3033 RMK A01 T10341085  RH  068%=      5-min Rain = 0
KPD4 100506Z 27012KT M03/M09 A3033 RMK A01 T10341085  RH  068%=      5-min Rain = 0
KPD4 100507Z 27012KT M03/M09 A3033 RMK A01 T10341085  RH  068%=      5-min Rain = 0
KPD4 100508Z 27012KT M03/M09 A3033 RMK A01 T10331085  RH  068%=      5-min Rain = 0
KPD4 100509Z 27012KT M03/M08 A3033 RMK A01 T10331084  RH  067%=      5-min Rain = 0
KPD4 100510Z 27011KT M03/M09 A3033 RMK A01 T10331085  RH  067%=      5-min Rain = 0
KPD4 100511Z 27012KT M03/M09 A3033 RMK A01 T10331085  RH  067%=      5-min Rain = 0
KPD4 100512Z 27012KT M03/M09 A3033 RMK A01 T10331085  RH  067%=      5-min Rain = 0
KPD4 100513Z 27011KT M03/M09 A3033 RMK A01 T10331085  RH  067%=      5-min Rain = 0
KPD4 100514Z 27011KT M03/M09 A3033 RMK A01 T10331085  RH  067%=      5-min Rain = 0
KPD4 100515Z 27012KT M03/M09 A3033 RMK A01 T10331086  RH  067%=      5-min Rain = 0
KPD4 100516Z 27012KT M03/M09 A3033 RMK A01 T10341086  RH  067%=      5-min Rain = 0
KPD4 100517Z 27012KT M03/M09 A3033 RMK A01 T10341086  RH  067%=      5-min Rain = 0
KPD4 100518Z 27012KT M03/M09 A3033 RMK A01 T10341086  RH  067%=      5-min Rain = 0
KPD4 100519Z 27012KT M03/M09 A3033 RMK A01 T10341086  RH  067%=      5-min Rain = 0
KPD4 100520Z 27011KT M03/M09 A3033 RMK A01 T10341086  RH  067%=      5-min Rain = 0
KPD4 100521Z 27012KT M04/M09 A3033 RMK A01 T10351086  RH  067%=      5-min Rain = 0
KPD4 100522Z 27012KT M04/M09 A3033 RMK A01 T10351086  RH  067%=      5-min Rain = 0
KPD4 100523Z 27012KT M04/M09 A3033 RMK A01 T10351086  RH  067%=      5-min Rain = 0
KPD4 100524Z 27012KT M04/M09 A3033 RMK A01 T10351086  RH  067%=      5-min Rain = 0
KPD4 100525Z 27012KT M03/M09 A3033 RMK A01 T10341086  RH  067%=      5-min Rain = 0
KPD4 100526Z 27012KT M04/M09 A3033 RMK A01 T10351086  RH  067%=      5-min Rain = 0
KPD4 100527Z 27012KT M03/M09 A3033 RMK A01 T10341086  RH  067%=      5-min Rain = 0
KPD4 100528Z 27012KT M03/M09 A3033 RMK A01 T10331086  RH  067%=      5-min Rain = 0
KPD4 100529Z 27013KT M03/M09 A3033 RMK A01 T10321086  RH  066%=      5-min Rain = 0
KPD4 100530Z 27012KT M03/M09 A3033 RMK A01 T10311085  RH  066%=      5-min Rain = 0
KPD4 100531Z 27013KT M03/M09 A3033 RMK A01 T10301086  RH  066%=      5-min Rain = 0
KPD4 100532Z 27013KT M03/M09 A3033 RMK A01 T10301085  RH  065%=      5-min Rain = 0
KPD4 100533Z 27013KT M03/M09 A3033 RMK A01 T10281085  RH  065%=      5-min Rain = 0
KPD4 100534Z 27013KT M03/M09 A3033 RMK A01 T10281085  RH  065%=      5-min Rain = 0
KPD4 100535Z 27013KT M03/M09 A3033 RMK A01 T10271085  RH  064%=      5-min Rain = 0
KPD4 100536Z 27013KT M03/M08 A3033 RMK A01 T10261084  RH  064%=      5-min Rain = 0
KPD4 100537Z 27013KT M03/M08 A3033 RMK A01 T10251084  RH  064%=      5-min Rain = 0
KPD4 100538Z 27013KT M03/M08 A3033 RMK A01 T10251084  RH  064%=      5-min Rain = 0
KPD4 100539Z 27014KT M02/M08 A3033 RMK A01 T10241084  RH  063%=      5-min Rain = 0
KPD4 100540Z 27013KT M02/M08 A3033 RMK A01 T10241084  RH  063%=      5-min Rain = 0
KPD4 100541Z 27013KT M02/M08 A3033 RMK A01 T10231084  RH  063%=      5-min Rain = 0
KPD4 100542Z 27012KT M02/M09 A3033 RMK A01 T10231085  RH  063%=      5-min Rain = 0
KPD4 100543Z 27011KT M02/M09 A3033 RMK A01 T10241085  RH  063%=      5-min Rain = 0
KPD4 100544Z 27011KT M03/M09 A3033 RMK A01 T10261086  RH  063%=      5-min Rain = 0
KPD4 100545Z 27011KT M03/M09 A3032 RMK A01 T10271086  RH  064%=      5-min Rain = 0
KPD4 100546Z 27011KT M03/M09 A3032 RMK A01 T10281087  RH  064%=      5-min Rain = 0
KPD4 100547Z 27011KT M03/M09 A3032 RMK A01 T10291087  RH  064%=      5-min Rain = 0
KPD4 100548Z 27011KT M03/M09 A3032 RMK A01 T10301087  RH  065%=      5-min Rain = 0
KPD4 100549Z 27011KT M03/M09 A3032 RMK A01 T10301087  RH  065%=      5-min Rain = 0
KPD4 100550Z 27011KT M03/M09 A3032 RMK A01 T10301087  RH  065%=      5-min Rain = 0
KPD4 100551Z 27011KT M03/M09 A3032 RMK A01 T10301087  RH  065%=      5-min Rain = 0
KPD4 100552Z 27012KT M03/M09 A3032 RMK A01 T10301087  RH  065%=      5-min Rain = 0
KPD4 100553Z 27012KT M03/M09 A3032 RMK A01 T10311087  RH  065%=      5-min Rain = 0
KPD4 100554Z 27012KT M03/M09 A3032 RMK A01 T10311087  RH  065%=      5-min Rain = 0
KPD4 100555Z 27012KT M03/M09 A3032 RMK A01 T10321088  RH  065%=      5-min Rain = 0
KPD4 100556Z 27012KT M03/M09 A3032 RMK A01 T10321088  RH  065%=      5-min Rain = 0
KPD4 100557Z 27012KT M03/M09 A3032 RMK A01 T10321088  RH  065%=      5-min Rain = 0
KPD4 100558Z 27013KT M03/M09 A3032 RMK A01 T10311087  RH  065%=      5-min Rain = 0
KPD4 100559Z 27012KT M03/M09 A3032 RMK A01 T10301087  RH  065%=      5-min Rain = 0

Page generated in 0.1625 seconds.